[{"header": {"dx": 0.06612293990616946, "dy": 0.0552356325346848, "nx": 98, "ny": 59, "la1": 35.046912555036876, "la2": 31.78801023549047, "lo1": -121.43107172385933, "lo2": -114.95102361305473, "refTime": "2026040719", "parameterCategory": 1, "parameterNumber": 2}, "data": [7.61, 7.61, 7.95, 8.24, 8.22, 8.19, 8.73, 8.65, 8.55, 8.82, 8.51, 8.0, 9.49, 8.77, 8.33, 8.44, 6.36, 1.05, -1.63, -1.73, -3.4, -4.83, -4.74, -4.89, -4.89, -4.89, -4.89, -4.89, -3.91, -3.63, -3.45, -2.16, -1.05, 0.0, 1.05, 1.99, 1.84, 2.6, 2.99, 4.11, 4.84, 6.0, 7.28, 7.33, 8.73, 10.03, 12.36, 13.74, 13.62, 11.44, 5.49, 5.2, 6.71, 5.37, 4.71, 7.44, 8.4, 9.21, 9.39, 9.39, 9.39, 8.94, 8.05, 7.15, 6.51, 6.94, 7.6, 8.49, 9.39, 11.18, 12.07, 11.62, 10.73, 10.28, 9.83, 9.83, 10.18, 8.22, 5.8, 0.0, 0.0, 0.0, 0.0, 3.16, 3.58, 3.13, 4.02, 4.92, 4.92, 5.64, 1.95, -0.0, -0.0, -0.0, -0.0, -0.0, -0.0, -2.8, 7.61, 7.61, 7.95, 8.24, 8.24, 8.5, 8.45, 8.38, 8.93, 8.55, 8.15, 9.36, 8.72, 8.4, 9.03, 8.6, 7.42, 5.95, 0.0, -1.1, -2.99, -5.1, -4.83, -6.08, -4.89, -4.89, -4.89, -4.43, -4.19, -3.72, -2.8, -1.84, -0.96, 0.0, 0.0, 1.84, 1.98, 1.84, 2.8, 3.91, 5.06, 6.32, 6.58, 7.78, 9.62, 12.01, 13.89, 13.96, 12.01, 6.32, 5.82, 5.75, 7.15, 5.37, 5.37, 7.6, 8.77, 9.39, 9.83, 9.83, 9.83, 8.94, 8.05, 7.15, 7.15, 7.6, 8.49, 8.94, 9.39, 10.28, 11.62, 11.62, 11.18, 9.97, 8.67, 8.67, 8.55, 8.22, 5.8, 0.0, 0.0, 0.0, 0.0, 3.16, 3.58, 3.13, 4.02, 4.92, 4.92, 5.64, 1.95, -0.0, -0.0, -0.0, -0.0, -0.0, -0.0, -2.8, 7.61, 7.61, 7.95, 7.95, 8.24, 8.82, 8.5, 8.73, 8.65, 8.55, 7.9, 7.23, 8.8, 8.0, 7.89, 8.06, 8.56, 7.53, 3.22, 0.0, -1.84, -2.99, -5.36, -6.01, -6.44, -4.89, -4.89, -3.91, -3.72, -3.55, -3.77, -2.82, -1.84, 0.0, 0.0, 1.73, 1.72, 1.96, 2.67, 3.4, 4.6, 6.2, 8.14, 10.13, 11.17, 12.88, 14.22, 12.96, 5.82, 5.69, 5.49, 6.8, 7.6, 6.32, 5.06, 7.2, 8.33, 9.39, 9.83, 9.83, 9.83, 8.24, 7.37, 7.81, 7.81, 8.33, 9.26, 10.14, 10.62, 11.06, 11.95, 12.35, 11.21, 9.6, 7.2, 7.2, 8.8, 9.17, 4.38, 0.0, 0.0, 0.0, 0.0, 2.8, 1.8, 2.6, 3.6, 5.26, 4.92, 7.63, -0.0, -0.0, -0.0, -0.0, 2.28, 2.1, -0.0, -1.08, 7.89, 7.61, 7.95, 7.95, 8.24, 8.24, 8.5, 8.78, 8.73, 8.29, 8.0, 7.44, 8.82, 8.0, 7.82, 7.82, 7.82, 8.58, 6.11, 0.95, -0.89, -1.73, -5.36, -6.64, -6.32, -6.01, -4.74, -3.91, -1.98, -1.73, -2.54, -2.57, -2.69, -1.4, 0.0, 1.49, 2.99, 4.2, 3.51, 4.87, 6.88, 9.0, 8.99, 8.41, 8.9, 9.49, 10.75, 6.63, 4.74, 5.37, 6.32, 7.01, 6.51, 6.4, 6.8, 8.33, 8.94, 9.39, 10.28, 10.28, 9.21, 7.89, 7.37, 7.37, 8.77, 9.21, 9.7, 10.18, 11.18, 12.14, 12.74, 12.81, 11.52, 7.82, 6.32, 6.79, 8.8, 8.85, 4.81, 0.0, 0.0, 1.84, 2.26, 1.84, 1.27, 3.16, 4.29, 4.8, 6.71, 3.39, -0.0, -0.0, -0.0, 1.76, 3.15, 2.2, -0.0, -2.12, 7.89, 8.24, 8.24, 7.95, 8.24, 8.24, 8.82, 8.5, 8.45, 8.38, 8.08, 7.44, 8.06, 8.21, 7.82, 8.21, 7.67, 8.43, 7.81, 4.26, 0.0, -1.49, -3.4, -5.36, -5.2, -5.86, -4.37, -2.99, -1.49, 0.0, 0.0, -0.85, -2.49, -2.71, 0.0, 0.0, 1.45, 4.08, 5.86, 6.3, 7.23, 8.05, 7.89, 7.36, 6.92, 6.98, 6.63, 6.8, 6.79, 5.95, 6.51, 6.71, 6.51, 6.8, 7.89, 8.94, 8.94, 9.39, 10.28, 10.14, 8.77, 6.58, 7.01, 7.89, 9.21, 9.7, 9.33, 8.91, 10.32, 11.61, 12.74, 12.02, 9.35, 6.8, 4.65, 4.14, 6.79, 7.81, 0.0, 0.0, 0.0, 1.55, 1.84, 2.26, 2.73, 3.93, 4.4, 8.05, -0.0, -0.0, -0.0, -0.0, -0.0, 1.84, 3.22, 3.16, 2.6, -2.83, 7.89, 8.24, 8.24, 8.24, 7.95, 8.24, 8.53, 8.5, 8.78, 8.45, 8.08, 6.92, 7.76, 8.21, 8.58, 8.4, 7.81, 8.18, 8.03, 6.64, 1.95, -1.16, -2.97, -3.49, -3.32, -4.83, -3.49, -2.83, -1.47, 0.0, 0.85, 0.81, 0.81, 0.0, 0.0, 0.0, 1.91, 5.16, 5.64, 5.5, 4.81, 5.27, 6.15, 7.42, 8.22, 10.01, 10.8, 10.52, 7.6, 6.26, 5.81, 6.26, 6.94, 6.94, 7.6, 8.05, 8.49, 8.49, 9.39, 10.58, 9.21, 6.26, 7.15, 7.89, 8.82, 9.7, 9.33, 8.48, 8.06, 9.89, 11.87, 11.09, 2.43, 0.0, 2.57, 2.72, 4.0, 3.47, 1.7, 0.0, 0.0, 1.52, 1.52, 1.84, 3.2, 7.2, 7.63, 2.82, -0.0, -0.0, -0.0, 1.77, 2.97, 3.91, 4.98, 3.72, -0.0, -3.11, 8.24, 8.24, 8.24, 8.24, 8.24, 8.24, 8.24, 8.53, 8.5, 8.45, 7.55, 6.92, 7.76, 8.05, 10.05, 8.8, 8.8, 8.55, 8.38, 7.96, 6.01, 1.01, -2.28, -3.77, -3.25, -2.02, -1.76, -1.76, -1.52, -0.99, 0.0, 2.57, 4.34, 2.98, 1.18, 0.0, 1.38, 4.65, 1.61, 0.92, 1.33, 2.93, 4.39, 6.43, 9.44, 9.84, 10.87, 10.18, 7.63, 7.15, 6.71, 6.26, 7.15, 7.15, 7.15, 6.71, 7.6, 7.6, 8.49, 9.83, 8.49, 6.26, 6.26, 6.71, 7.15, 8.94, 9.7, 8.3, 7.21, 8.82, 10.73, 11.62, 0.0, -3.47, 0.0, 0.0, 0.0, 2.06, 1.84, 2.39, 0.0, 1.84, 3.8, 4.96, 5.7, 10.73, 5.4, 2.2, -0.0, -0.0, -0.0, 3.82, 3.72, 5.24, 5.94, 4.84, -0.0, -5.21, 8.24, 8.24, 8.24, 8.24, 8.24, 8.24, 8.24, 8.53, 8.53, 8.22, 7.59, 6.3, 7.4, 8.12, 9.1, 8.63, 9.2, 9.42, 8.93, 9.04, 9.03, 7.03, 4.74, 2.12, 0.0, 0.0, 0.0, -2.28, -3.68, -1.58, 0.0, 1.39, 3.77, 4.8, 1.52, 0.0, 0.0, -0.0, -5.2, 0.0, 0.0, 2.6, 3.56, 4.24, 5.06, 5.36, 6.52, 6.7, 6.79, 5.69, 5.09, 6.07, 6.94, 7.01, 7.45, 7.6, 8.49, 8.49, 8.94, 8.94, 8.49, 6.26, 5.7, 5.36, 5.81, 7.15, 9.39, 8.82, 6.58, 7.15, 8.67, 8.55, -0.0, -12.07, -11.99, -3.04, 0.0, 0.0, 3.04, 0.0, 0.0, 2.93, 5.21, 5.21, 10.18, 10.8, 5.6, 3.14, 2.54, -0.0, 2.19, 1.99, 3.91, 5.58, 5.4, 4.43, -0.0, -2.06, 8.24, 8.24, 8.24, 8.24, 8.24, 8.24, 8.24, 8.53, 8.53, 7.93, 7.91, 6.76, 6.4, 6.41, 7.13, 7.59, 8.35, 8.73, 9.04, 9.16, 8.73, 8.93, 8.17, 7.6, 5.81, 7.63, 7.6, 0.0, -1.98, 0.0, 0.0, 1.83, 6.2, 13.15, 12.07, 10.73, -6.2, -4.8, -6.64, -4.74, 0.0, 1.4, 2.69, 4.56, 3.72, 3.93, 6.32, 8.24, 6.52, 5.37, 6.01, 5.95, 6.8, 7.45, 8.38, 8.82, 9.29, 10.18, 10.18, 9.29, 8.82, 6.58, 5.26, 4.82, 5.36, 7.15, 9.29, 8.82, 6.14, 6.26, 8.05, 9.21, 9.67, -0.0, -7.9, -6.95, 0.0, 0.0, 0.0, 0.0, -4.01, 0.0, 3.11, 7.07, 9.39, 9.75, 5.95, 3.53, 2.6, 2.39, 2.6, 2.95, 4.19, 4.89, 4.98, 2.8, -0.0, -0.0, 8.24, 8.24, 8.24, 8.54, 8.24, 8.24, 8.24, 8.56, 8.53, 8.24, 8.2, 8.17, 7.54, 7.28, 6.48, 5.78, 6.96, 6.96, 6.63, 7.73, 7.59, 9.75, 9.39, 6.44, 4.83, 5.37, 5.37, 6.95, 8.22, 0.0, 0.0, 12.96, -0.0, 5.0, 6.71, 3.25, -2.83, -2.4, -0.0, -0.0, -0.0, 3.2, 4.6, 5.51, 5.36, 5.36, 5.73, 6.26, 6.26, 5.81, 5.95, 5.37, 6.08, 6.9, 8.48, 9.46, 9.86, 10.27, 10.27, 9.2, 8.8, 6.13, 6.7, 5.6, 6.51, 7.06, 9.29, 9.29, 7.08, 7.06, 8.49, 10.73, 12.07, 11.03, 7.59, 9.39, 8.49, 6.32, 0.0, -4.38, -8.93, -4.01, 0.0, 5.37, 6.71, 6.94, 7.2, 7.07, 5.69, 4.11, 4.46, 3.58, 4.29, 4.54, 4.89, 4.11, 2.99, 1.4, 8.24, 8.54, 8.54, 8.54, 8.54, 8.54, 8.24, 8.56, 8.56, 8.24, 8.54, 8.81, 9.17, 9.15, 8.85, 8.1, 7.13, 7.82, 8.68, 10.87, 15.59, -0.0, -0.0, -0.0, -0.0, -0.0, -0.0, -0.0, 2.69, 7.59, -0.0, -0.0, -0.0, 1.14, 2.32, 2.97, 2.97, 1.63, 2.16, 3.47, 3.72, 4.98, 5.29, 6.26, 6.07, 5.51, 6.45, 7.15, 7.15, 6.17, 4.6, 4.29, 4.11, 5.59, 7.44, 8.93, 9.46, 9.82, 9.27, 8.59, 6.32, 6.28, 5.69, 5.37, 7.2, 8.06, 9.46, 8.63, 6.8, 7.2, 8.05, 9.96, 11.4, 10.41, 9.75, 10.18, 9.83, 9.39, 9.83, 12.52, -6.4, -3.79, 0.0, 4.1, 4.84, 6.71, 7.6, 7.15, 6.26, 4.92, 4.47, 4.0, 3.93, 4.29, 5.37, 4.89, 3.68, 2.99, 7.96, 8.24, 8.54, 8.54, 8.54, 8.54, 8.54, 8.87, 8.56, 8.87, 8.54, 9.17, 9.5, 10.3, 10.58, 9.88, 9.84, 10.6, 11.72, 13.99, -0.0, -7.9, -6.14, -6.17, -4.74, -5.6, -5.6, -2.86, -2.6, -0.0, -0.0, 0.96, 0.96, 1.05, 0.96, 1.99, 3.35, 4.74, 4.74, 5.49, 5.49, 5.58, 5.51, 5.64, 5.36, 4.82, 6.71, 7.15, 7.06, 6.4, 4.11, 3.63, 2.99, 3.91, 4.58, 6.01, 7.27, 7.73, 7.28, 5.7, 5.03, 4.14, 3.8, 3.4, 6.79, 8.0, 9.6, 9.67, 7.59, 6.42, 7.27, 7.59, 6.64, 6.32, 6.64, 5.95, 7.59, 9.2, 10.73, 12.52, 12.96, 0.0, 0.0, 0.0, 2.6, 5.06, 6.44, 7.89, 7.45, 5.64, 4.92, 4.92, 4.0, 4.57, 5.51, 5.75, 3.91, 3.91, 7.6, 8.24, 8.24, 8.54, 8.54, 8.54, 8.54, 8.87, 8.87, 8.87, 9.17, 8.87, 9.5, 10.42, 11.72, 12.79, 12.11, 10.81, 10.13, 11.14, 11.18, -0.0, -6.44, -4.8, -4.52, -4.73, -4.73, -4.8, -4.43, -3.45, -0.0, 0.96, 0.96, 0.96, 1.84, 2.99, 4.11, 5.58, 6.0, 6.16, 6.16, 5.6, 4.98, 3.9, 4.92, 4.92, 5.81, 6.71, 6.4, 5.06, 3.72, 2.82, 3.2, 3.68, 6.32, 6.64, 5.69, 0.0, 0.0, 0.0, 6.26, 6.71, 4.22, 4.56, 5.69, 5.58, 5.15, 5.7, 3.53, 3.19, 3.39, 3.11, 3.32, 2.99, 3.8, 4.8, 5.0, 3.25, 0.0, 7.59, 8.49, 8.49, 0.0, 0.0, 3.04, 5.6, 6.44, 4.56, 5.37, 6.4, 5.51, 4.47, 4.02, 4.92, 6.58, 5.81, 4.54, 4.11, 7.6, 8.24, 8.24, 8.24, 8.54, 8.54, 8.87, 8.87, 8.87, 8.87, 9.17, 9.48, 9.5, 10.12, 11.28, 12.7, 13.31, 13.09, 12.04, 10.94, 11.8, 11.95, 12.07, -11.03, -11.18, -10.28, -8.67, -5.6, -4.11, -3.22, -0.89, -0.0, 1.32, 1.84, 1.84, 3.63, 4.54, 5.94, 6.2, 6.2, 6.2, 4.98, 5.09, 4.4, 3.48, 3.79, 3.93, 6.51, 8.05, 9.83, 8.18, 7.59, 13.41, -0.0, 5.6, 8.22, 8.91, 0.0, -10.18, -3.93, -1.03, 1.52, 5.2, 5.6, 4.65, 5.6, 5.21, 2.6, 0.0, 0.0, 0.0, -1.76, 0.0, 0.0, 0.0, 0.0, 0.0, 0.0, 0.0, 0.0, 6.4, 8.49, 11.62, 13.41, 8.85, 9.48, 0.0, 0.0, 1.41, 3.47, 5.21, 3.79, 4.09, 5.2, 5.81, 5.26, 4.98, 4.6, 7.6, 7.96, 8.24, 8.24, 8.24, 8.54, 8.58, 8.58, 8.58, 8.87, 9.48, 9.8, 9.8, 10.42, 11.28, 12.0, 12.7, 13.31, 12.83, 11.87, 12.06, 12.39, 12.89, 12.39, 13.41, 12.96, 11.62, -0.0, -0.0, -0.0, -0.0, 0.7, 1.52, 1.52, 2.8, 4.29, 5.72, 6.2, 7.15, 5.81, 5.81, 5.64, 4.46, 3.79, 1.7, 1.7, 1.84, 4.11, 5.6, 6.0, 7.63, 6.64, -0.0, -0.0, 1.63, 3.47, 4.43, 3.8, -5.69, -1.63, -0.0, -0.0, 1.63, 3.22, 6.36, 6.26, 6.26, 7.15, 0.0, -3.2, -4.47, -8.82, -11.62, -10.41, -8.55, -8.4, -4.92, -1.6, 0.0, 0.0, 1.98, 4.74, 6.32, 10.73, 10.28, 11.2, 13.41, -5.0, 0.0, 3.2, 3.97, 3.0, 2.98, 4.46, 5.64, 4.92, 4.82, 4.82, 7.6, 7.6, 7.96, 8.24, 7.96, 8.24, 8.58, 8.58, 8.58, 8.87, 9.19, 9.8, 9.8, 10.42, 11.03, 11.8, 12.54, 12.95, 12.79, 12.41, 12.66, 12.65, 12.93, 13.57, 14.16, 13.86, 12.35, 11.03, 9.13, 6.08, 2.6, 1.49, 1.27, 1.41, 2.49, 3.33, 5.58, 6.17, 6.26, 5.81, 4.47, 3.93, 4.11, 2.98, 1.7, -0.0, -0.0, 1.7, 2.98, 3.22, 3.22, 3.47, 1.52, 1.84, 3.22, 4.11, 4.11, 3.22, 1.84, 1.63, 0.96, 1.41, 1.84, 2.8, 3.72, 3.72, 5.72, 6.8, 6.26, 0.0, -5.7, -9.33, -8.85, -3.68, -0.0, -0.0, -2.0, -5.2, 0.0, 0.0, 0.0, 1.84, 2.4, 3.4, 5.37, 6.26, 4.6, 9.83, 0.0, 5.37, 6.01, 0.0, 1.7, 5.2, 5.7, 4.82, 4.02, 4.02, 7.6, 7.6, 7.96, 7.96, 7.96, 8.24, 8.58, 8.58, 8.58, 8.87, 9.19, 9.8, 10.09, 10.42, 10.69, 11.58, 12.37, 12.81, 12.67, 12.74, 12.66, 12.72, 13.23, 13.55, 14.26, 14.75, 14.75, 14.3, 13.41, 12.07, 10.08, 5.69, 1.05, 1.63, 0.89, 1.63, 1.98, 3.79, 4.0, 3.6, 2.2, 1.83, 2.8, 3.22, 1.41, 1.41, 1.84, 1.7, 2.2, 3.48, 3.48, 2.98, 2.98, 3.79, 4.46, 4.84, 4.84, 4.11, 2.8, 3.0, 2.8, 3.22, 3.79, 3.79, 4.46, 3.93, 5.21, 5.58, 6.51, 4.47, -7.07, -7.15, -3.56, -0.0, 1.01, 1.84, 1.41, 6.71, 0.0, 0.0, 0.0, 1.49, 1.58, 1.58, 2.69, 3.0, 4.4, 4.02, 4.92, 8.05, 0.0, -1.3, 0.0, 4.74, 5.58, 4.8, 4.34, 4.34, 7.6, 7.6, 7.96, 7.96, 7.96, 8.24, 8.58, 8.58, 8.58, 9.19, 9.19, 9.8, 10.09, 10.42, 10.69, 11.52, 12.45, 12.92, 12.67, 12.87, 12.85, 13.21, 13.29, 13.18, 13.83, 15.17, 16.05, 15.6, 15.14, 14.19, 12.96, 10.0, 2.17, -0.0, -0.0, -0.0, -0.95, -0.0, -0.0, -0.0, -0.0, 1.52, 1.52, 3.0, 3.0, 3.0, 4.43, 2.98, 3.48, 3.48, 3.48, 3.48, 3.48, 4.46, 5.51, 5.64, 4.84, 4.84, 4.11, 4.11, 4.84, 4.84, 5.09, 5.09, 5.36, 4.34, 4.82, 5.94, 8.18, -0.0, -6.7, -5.2, -1.52, -0.0, 1.84, 3.72, 3.91, 2.98, 6.26, 0.0, 0.0, 0.0, 0.0, 0.0, 1.95, 2.4, 5.69, 4.92, 5.51, 7.2, 9.39, -1.98, 0.0, 4.22, 5.95, 4.11, 3.48, 3.48, 7.33, 7.6, 7.89, 7.96, 7.96, 7.96, 8.58, 8.58, 8.58, 9.19, 9.19, 9.8, 10.09, 10.09, 10.09, 12.22, 11.52, 12.17, 11.61, 12.16, 13.75, 14.84, 13.75, 11.14, 10.92, 14.18, 12.74, 14.55, 14.3, 9.48, 0.0, 12.07, -0.0, -0.0, -0.0, -1.98, -1.72, -0.88, -0.0, -0.0, -0.0, 0.96, 1.98, 2.8, 4.29, 5.72, 5.36, 4.84, 4.4, 4.4, 3.48, 3.48, 4.4, 5.09, 5.51, 5.64, 5.51, 4.84, 4.84, 5.64, 5.51, 5.51, 5.64, 4.47, 4.47, 4.47, 4.92, 5.29, 8.3, 7.59, 4.46, 4.14, 4.8, 4.6, 2.99, 2.8, 2.8, 3.22, 2.6, 1.84, -2.6, -7.6, -8.4, 0.0, 0.0, 2.83, 4.2, 6.01, 10.28, 8.91, 7.21, 0.0, 0.0, 0.0, 5.06, 4.43, 2.6, 2.6, 7.33, 7.33, 7.89, 8.24, 7.96, 7.96, 8.58, 8.58, 8.58, 9.19, 9.19, 9.8, 10.09, 10.09, 10.42, 10.65, 10.94, 10.06, 10.28, 11.04, 12.79, 14.24, 13.51, 11.09, 11.03, 12.02, 7.0, -10.75, -8.43, -11.99, -11.62, 10.73, -0.0, -0.0, -0.0, -1.63, -2.6, -2.16, -2.16, -1.19, -0.0, 0.88, 2.07, 2.58, 3.48, 7.06, 6.23, 6.07, 4.4, 4.0, 3.48, 3.48, 3.48, 4.46, 4.4, 4.98, 6.94, 4.66, 5.29, 6.26, 5.81, 5.36, 5.81, 5.36, 4.02, 4.02, 4.47, 5.73, 6.02, 6.57, 8.06, 12.22, 16.58, 17.81, 10.75, 4.2, 1.58, 1.4, 1.18, 1.03, -0.0, -4.83, -8.0, -8.49, -8.49, -5.06, 0.0, 0.0, 6.71, 5.36, 5.51, 7.6, 8.94, 0.0, 5.37, 5.37, 4.43, 4.43, 7.33, 7.33, 7.89, 8.24, 7.96, 7.96, 8.58, 8.58, 8.58, 8.87, 9.19, 9.5, 10.09, 10.09, 11.03, 11.28, 10.94, 9.76, 8.85, 10.51, 12.65, 12.92, 12.15, 11.83, 13.05, 13.82, 13.99, -6.8, -8.05, -5.7, -6.32, -0.0, 6.01, 6.01, 3.4, -0.0, -0.0, -1.84, -1.98, -0.0, -0.0, 1.41, 2.32, 3.91, 3.43, 5.72, 6.51, 5.51, 3.48, 2.2, 3.48, 3.48, 3.48, 3.79, 4.84, 4.6, 5.6, 6.2, 6.71, 6.07, 5.64, 5.81, 5.81, 5.36, 4.02, 3.82, 4.34, 5.26, 5.94, 8.24, 11.4, 13.86, 15.71, 16.22, 15.65, -0.0, -0.0, -0.0, 1.69, 1.07, 1.1, -0.0, -3.6, -5.95, -6.36, -4.02, -2.84, 0.0, 2.6, 5.6, 8.05, 8.8, -0.0, -6.71, 6.71, 6.71, 3.79, 3.79, 7.33, 7.33, 7.89, 7.89, 7.96, 7.96, 8.24, 8.58, 8.58, 8.87, 9.19, 9.5, 10.09, 10.09, 10.69, 11.28, 10.88, 10.35, 11.06, 12.4, 13.49, 12.4, 10.43, 10.17, 12.8, 14.52, 14.75, 12.96, 6.64, -0.0, -0.0, 4.43, 6.0, 6.0, 6.4, 4.74, -0.0, -0.0, -0.0, -0.0, -0.0, 1.52, 2.32, 2.8, 3.38, 4.07, 6.0, 3.48, 1.55, 1.7, 2.98, 3.79, 3.79, 3.79, 4.84, 5.6, 6.0, 7.31, 6.71, 5.6, 4.29, 4.98, 4.98, 4.34, 4.02, 3.58, 3.9, 4.77, 4.98, 6.64, 7.47, 9.83, 3.36, -8.93, -8.0, -9.8, -9.17, -3.16, -0.0, 1.45, 2.21, 0.95, -0.0, -1.23, -2.12, -2.2, -4.02, 4.92, 7.6, 4.2, 7.9, -0.0, -3.4, -3.48, 4.47, 5.36, 4.11, 4.11, 7.33, 7.33, 7.33, 7.6, 7.96, 7.96, 8.24, 8.58, 8.58, 8.87, 9.19, 9.19, 9.8, 10.09, 10.69, 10.69, 11.23, 10.65, 11.68, 12.98, 14.36, 13.81, 11.88, 10.18, 10.43, 13.2, 13.84, 12.72, 10.58, 9.39, 8.05, 6.0, 5.81, 5.36, 5.36, 5.81, 4.8, 2.2, 1.55, 1.84, 1.52, 1.52, 1.23, 1.23, 1.47, 2.44, 2.98, -0.0, -0.0, 1.41, 1.41, 3.22, 4.11, 3.79, 4.46, 4.84, 5.6, 6.57, 6.71, 3.48, 2.99, 3.79, 3.93, 3.35, 3.58, 4.47, 4.02, 4.34, 4.82, 5.73, 6.94, 3.16, -13.15, -8.06, -4.92, -9.83, -13.57, -8.93, -3.07, -0.0, 1.45, -0.0, -0.0, -0.0, -0.0, -0.0, -0.0, -1.4, -7.27, -11.28, -11.2, -8.49, -2.84, -2.53, 4.02, 4.47, 3.48, 3.48, 6.96, 6.96, 7.33, 7.33, 7.96, 7.96, 8.24, 8.58, 8.58, 8.87, 9.19, 9.19, 9.8, 10.09, 10.69, 10.69, 10.94, 11.58, 12.02, 12.96, 13.65, 13.68, 13.37, 12.21, 11.16, 11.29, 12.45, 12.62, 11.85, 11.45, 10.41, 8.94, 7.6, 6.71, 6.26, 6.26, 5.81, 5.09, 3.79, 2.98, 3.22, 2.8, 3.0, 1.23, -0.0, -0.0, -0.0, -0.0, -0.0, -0.0, 1.63, 2.8, 3.22, 3.22, 3.22, 4.84, 4.6, 5.6, 6.0, 4.4, 1.05, 1.99, 2.23, 2.8, 4.47, 4.4, 3.82, 5.36, 4.92, 5.81, 6.26, -9.39, -10.75, -4.98, -5.09, -4.92, -8.94, -11.2, -6.4, -2.81, -0.0, -0.0, -0.0, 1.0, 1.07, 0.89, -0.0, -0.0, -4.2, -6.94, -8.05, -5.81, -4.02, -4.02, 4.02, 0.0, 0.0, 0.0, 6.96, 6.96, 7.33, 7.33, 7.6, 7.96, 8.24, 8.58, 8.58, 8.87, 9.19, 9.19, 9.5, 9.8, 10.36, 10.69, 10.69, 11.33, 11.68, 12.96, 12.96, 13.39, 13.1, 13.02, 13.19, 12.27, 11.88, 11.88, 12.39, 12.25, 11.5, 10.96, 9.83, 8.94, 8.49, 8.05, 7.6, 7.15, 6.51, 5.21, 4.74, 4.74, 3.97, 2.12, -0.0, -1.41, -1.41, -0.0, -0.0, -0.0, 0.63, 1.63, 2.8, 2.8, 4.43, 4.84, 4.84, 4.29, 5.21, 4.4, 0.0, 0.0, 0.0, 3.13, -0.0, 3.16, 3.72, 4.82, 5.36, 6.2, 6.71, 7.21, -10.18, -8.03, -7.87, -6.94, -4.02, -3.82, -6.32, -7.24, -4.24, -2.06, -0.0, -0.0, 1.14, 1.07, 1.14, 1.14, -0.0, -1.8, -5.81, -7.81, -5.2, -3.48, 0.0, 0.0, 0.0, 0.0, 6.96, 6.96, 7.33, 7.6, 7.6, 7.6, 7.96, 8.58, 8.58, 8.87, 9.19, 9.19, 9.19, 9.8, 10.36, 10.36, 10.69, 11.33, 12.02, 12.35, 12.35, 12.68, 12.78, 13.49, 13.81, 13.39, 12.62, 11.6, 11.99, 11.6, 11.44, 11.09, 10.6, 10.08, 9.83, 8.94, 8.49, 8.49, 8.05, 7.37, 6.8, 6.8, 6.32, 5.37, -0.0, -0.0, -3.0, -1.98, -1.52, -1.14, -0.0, -0.0, 1.52, 1.32, 4.29, 4.74, 4.84, 4.46, 4.84, 5.58, 5.09, 3.58, 2.24, -0.0, -0.0, 2.23, 3.93, 4.98, 5.81, 6.17, 6.64, 7.15, -5.69, -9.08, -9.17, -10.73, -11.84, -6.71, -4.98, -6.98, -8.1, -6.4, -2.2, -0.0, -0.0, -0.0, 0.89, 1.84, 0.96, 0.88, 1.7, -5.95, -4.71, -3.0, 0.0, 0.0, 0.0, 0.0, 6.96, 6.96, 6.96, 7.6, 7.6, 7.6, 7.96, 7.96, 8.58, 8.58, 8.87, 9.19, 9.19, 9.8, 10.09, 10.36, 10.69, 11.33, 11.68, 12.35, 12.35, 12.43, 12.78, 13.14, 13.27, 13.41, 12.99, 12.38, 11.8, 11.2, 11.21, 10.79, 10.6, 10.6, 10.41, 10.18, 9.74, 9.83, 9.39, 8.94, 8.94, 8.33, 8.38, 7.81, 7.6, -0.0, -5.37, -2.26, -1.63, -1.23, -1.14, -0.0, -0.0, 0.63, 2.8, 2.8, 3.47, 2.98, 3.79, 4.98, 6.4, 5.26, 4.4, -0.0, -0.0, 2.2, 4.29, 6.17, 6.26, 6.26, 6.64, 6.71, 7.6, 0.0, -6.64, -8.94, -12.45, -10.58, -5.73, -6.0, -8.38, -7.36, -2.35, -1.76, -1.01, -0.0, 0.89, 1.73, 1.01, 0.95, 1.52, 0.96, -5.69, -4.71, -3.0, 0.0, 0.0, 0.0, 6.96, 6.96, 6.96, 7.33, 7.6, 7.6, 7.96, 7.96, 8.24, 8.87, 8.87, 9.19, 9.19, 9.8, 10.09, 10.09, 10.69, 11.33, 11.68, 12.0, 12.0, 12.07, 12.07, 12.52, 12.89, 12.89, 13.02, 12.23, 11.99, 11.36, 11.14, 10.92, 10.38, 10.28, 10.28, 9.97, 9.97, 9.74, 9.39, 9.39, 8.94, 8.82, 8.38, 8.49, 7.63, 0.0, -8.49, -5.37, -1.73, -1.63, -1.14, -0.0, -0.0, -0.0, 0.7, 1.84, 2.8, 2.8, 3.63, 4.98, 6.2, 6.64, 4.98, 1.84, 1.84, 2.8, 5.94, 6.71, 6.71, 7.15, 7.15, 7.15, 7.15, 7.15, 4.8, -3.4, -10.28, -9.33, -6.26, -5.94, -7.2, -9.48, -4.81, -1.91, -1.47, -0.0, -0.0, -0.0, -0.0, -0.0, 0.89, 1.96, -7.15, -6.7, -4.46, -2.12, 0.0, 0.0, 6.96, 6.96, 6.96, 6.96, 7.33, 7.6, 7.96, 7.96, 8.24, 8.87, 8.87, 9.48, 9.48, 9.77, 10.09, 10.09, 10.42, 11.06, 11.68, 12.0, 12.0, 12.07, 11.8, 12.16, 12.52, 12.16, 12.13, 11.88, 11.83, 11.6, 11.36, 11.14, 10.92, 10.5, 10.35, 9.85, 9.75, 9.54, 9.74, 9.83, 9.39, 8.94, 8.49, 7.45, 7.15, 3.4, -6.01, -7.2, -2.82, -1.63, -0.0, -0.0, -0.0, -0.0, -0.0, 0.73, 1.52, 3.0, 3.63, 4.89, 5.94, 6.2, 4.98, 3.0, 3.0, 4.89, 6.16, 6.71, 6.88, 6.94, 7.1, 7.1, 7.98, 8.49, 6.44, -0.0, -2.49, -7.15, -5.51, -5.81, -5.73, -10.04, -8.85, -2.72, -1.84, -0.0, -0.0, -0.89, -0.89, -0.0, 0.89, 1.98, 2.12, -6.8, -4.22, -2.54, 0.0, 0.0, 6.96, 6.96, 6.96, 6.96, 7.33, 7.33, 7.61, 8.24, 8.24, 8.56, 8.87, 9.17, 9.48, 9.77, 10.09, 10.09, 10.73, 11.06, 11.33, 11.64, 11.73, 12.07, 11.8, 12.16, 12.16, 11.54, 11.9, 11.53, 11.5, 11.44, 11.6, 11.36, 11.14, 10.73, 10.6, 10.08, 9.85, 9.75, 9.97, 9.74, 9.83, 9.39, 8.94, 7.94, 6.79, 7.6, 8.49, -3.97, -1.05, -0.0, 1.19, 1.19, -0.0, -0.0, -0.0, -0.0, 0.88, 2.0, 2.99, 4.11, 4.98, 5.51, 3.91, 3.72, 4.43, 4.89, 5.6, 7.15, 5.6, 6.18, 6.6, 6.45, 8.41, 10.73, -0.0, -5.15, -1.98, -2.06, -4.47, -5.26, -5.36, -9.7, -10.37, -8.58, -4.1, -1.1, -0.0, -1.05, -0.96, -0.0, -0.0, 2.99, 4.37, -0.0, -6.01, -2.69, 0.0, 0.0, 6.7, 6.7, 6.96, 6.96, 7.61, 7.61, 7.61, 7.95, 8.24, 8.56, 8.56, 8.87, 9.48, 9.48, 9.77, 10.39, 10.73, 10.73, 11.39, 11.39, 11.39, 11.45, 11.8, 11.8, 11.54, 11.54, 11.53, 11.16, 11.5, 11.5, 11.83, 11.99, 11.36, 10.96, 10.73, 10.6, 10.08, 9.55, 9.75, 9.97, 9.74, 9.74, 9.39, 8.49, 7.6, 8.05, 8.24, 2.49, 0.79, 1.6, 1.98, 1.98, 2.23, 1.19, 1.19, 0.96, 0.96, 1.05, 1.83, 3.22, 4.98, 5.21, 4.74, 4.89, 4.98, 5.4, 5.4, 6.51, 6.26, 5.06, 4.43, 5.94, 6.26, 10.73, -11.99, -11.87, -5.48, -0.0, -3.47, -4.92, -4.38, -5.36, -11.18, -11.99, -8.05, -0.0, 1.84, 1.41, -0.0, -1.27, -0.0, 2.2, 3.22, 4.22, -6.32, -2.83, 0.0, 0.0, 6.97, 6.97, 6.97, 7.24, 7.61, 7.61, 7.61, 7.95, 7.95, 8.56, 8.56, 8.87, 9.17, 9.48, 9.78, 10.11, 10.44, 10.73, 11.04, 11.04, 10.77, 11.45, 11.45, 11.52, 11.17, 11.18, 10.81, 10.55, 10.41, 10.53, 11.28, 11.28, 11.26, 10.63, 10.55, 10.32, 10.17, 9.96, 9.4, 9.75, 9.54, 9.74, 9.29, 8.82, 8.94, 9.39, 9.03, 6.7, 4.89, 3.48, 3.16, 2.53, 2.53, 2.53, 1.8, 1.08, 1.19, 1.3, 2.4, 3.49, 4.6, 5.21, 6.0, 5.34, 5.94, 5.73, 5.81, 6.71, 6.71, 6.26, 4.92, 5.73, 7.89, 7.15, 13.86, -14.11, -11.44, -5.2, -5.36, -9.64, -7.45, -4.57, -4.77, -10.73, -12.3, -6.0, 8.85, 9.6, 4.43, -2.6, -1.27, -0.0, 2.68, 2.73, 8.49, -2.83, -2.54, -2.54, 6.97, 6.97, 6.97, 6.97, 7.24, 7.61, 7.61, 7.95, 7.95, 7.95, 8.56, 8.56, 9.17, 9.17, 9.78, 10.11, 10.11, 10.11, 10.43, 10.77, 10.77, 11.1, 11.1, 11.17, 11.17, 11.18, 10.81, 10.55, 10.55, 10.48, 9.34, 9.34, 9.66, 10.28, 10.23, 10.15, 10.0, 9.77, 9.96, 9.4, 9.75, 9.54, 9.54, 9.29, 9.29, 9.39, 9.74, 8.6, 7.47, 6.4, 5.6, 4.8, 3.72, 2.84, 2.53, 2.15, 1.6, 2.0, 2.2, 2.95, 4.19, 5.6, 6.64, 5.51, 5.73, 5.81, 5.81, 6.26, 7.6, 7.89, 6.21, 6.6, 7.37, 7.6, 12.52, -15.2, -9.21, -4.4, -4.15, -7.37, -8.94, -8.8, -7.44, -7.21, -9.83, -11.62, 12.52, 12.07, 8.48, -0.0, -2.98, -0.0, 1.13, 2.23, 6.71, -3.8, -2.54, -2.54, 6.58, 6.58, 6.97, 6.97, 6.97, 7.61, 7.9, 7.9, 8.24, 8.24, 8.85, 8.85, 9.13, 9.46, 9.78, 9.78, 9.78, 10.11, 10.43, 10.43, 10.77, 11.1, 11.1, 10.47, 10.82, 10.82, 10.81, 11.18, 11.54, 11.28, 10.41, 9.08, 9.08, 9.67, 9.67, 9.84, 10.0, 9.42, 9.77, 9.2, 9.4, 9.33, 9.54, 9.54, 9.29, 9.74, 9.83, 9.39, 8.94, 8.33, 7.45, 6.51, 5.6, 5.2, 3.93, 3.16, 2.53, 1.88, 1.6, 2.15, 5.6, 6.0, 5.6, 6.07, 5.26, 5.26, 5.36, 5.81, 7.15, 7.45, 6.57, 7.28, 7.94, 9.39, 13.86, -14.75, -9.64, -5.36, -4.47, -6.71, -9.83, -10.0, -10.4, -11.03, -11.62, -8.85, 9.48, 12.45, 10.6, -0.0, -2.98, -1.8, -0.0, 1.4, 5.81, -5.69, -4.46, -4.46, 6.58, 6.58, 6.97, 6.97, 6.97, 7.61, 7.61, 7.9, 8.24, 8.24, 8.85, 8.85, 9.13, 9.13, 9.13, 9.46, 9.78, 9.78, 9.78, 10.43, 10.43, 10.13, 10.47, 10.47, 10.47, 10.47, 10.47, 11.18, 11.18, 11.16, 11.26, 10.43, 9.42, 9.4, 9.4, 9.3, 9.65, 9.27, 9.42, 9.2, 9.2, 8.99, 9.33, 9.6, 9.6, 9.76, 9.76, 9.39, 9.39, 8.94, 8.33, 7.89, 7.45, 6.4, 5.6, 4.65, 3.48, 2.84, 2.53, 2.5, 2.79, 5.36, 6.0, 6.07, 5.64, 5.64, 5.26, 5.73, 6.26, 6.64, 6.02, 7.45, 7.94, 11.18, 13.86, 13.41, -5.6, -12.04, -12.71, -12.52, -12.07, -10.8, -10.8, -12.52, -12.52, -6.2, 8.18, 12.3, 7.59, -0.0, -2.48, -3.16, -1.4, -0.0, 4.92, -5.37, -6.01, -6.01, 6.58, 6.58, 6.97, 6.97, 7.26, 7.61, 7.61, 7.61, 8.24, 8.24, 8.85, 8.85, 8.85, 8.85, 9.13, 9.46, 9.46, 9.78, 9.78, 10.09, 10.13, 10.13, 10.13, 10.13, 10.13, 10.13, 10.47, 10.81, 10.81, 10.79, 10.9, 10.87, 10.04, 9.81, 9.4, 9.43, 9.43, 9.05, 9.05, 9.03, 9.2, 8.8, 8.99, 9.33, 9.33, 9.75, 9.97, 9.74, 9.29, 9.39, 8.94, 8.49, 7.89, 7.45, 6.4, 6.0, 4.65, 4.29, 3.58, 2.5, 3.07, 4.0, 7.01, 5.73, 5.51, 6.07, 5.26, 5.73, 6.26, 6.26, 7.15, 6.2, 8.38, 9.77, 12.52, 12.07, 10.79, 0.0, -13.19, -15.34, -13.15, -10.4, -9.6, -10.73, -10.73, 0.0, 11.18, 8.4, 2.4, -0.0, -2.98, -3.48, -3.6, -0.0, 3.58, -4.11, -6.01, -6.01, 6.58, 6.58, 6.58, 6.97, 7.26, 7.61, 7.61, 7.61, 8.24, 8.24, 8.85, 8.85, 8.85, 8.85, 8.85, 8.85, 9.46, 9.46, 9.78, 9.48, 9.48, 9.8, 9.8, 9.8, 9.8, 10.13, 10.47, 10.47, 10.81, 10.45, 10.79, 10.19, 10.15, 10.28, 10.04, 9.81, 9.43, 9.43, 9.05, 9.05, 8.82, 8.8, 8.72, 8.67, 8.37, 8.8, 9.2, 9.45, 9.33, 9.26, 8.94, 8.49, 8.05, 7.45, 7.45, 6.4, 5.6, 4.65, 3.22, 3.07, 3.2, 4.11, 7.01, 6.17, 5.51, 6.07, 5.36, 5.81, 5.81, 5.81, 6.26, 6.2, 7.89, 8.94, 12.52, 12.14, 10.75, 10.41, -14.84, -15.78, -11.99, -8.18, -7.63, -8.05, -8.05, -5.69, -0.0, 3.48, 2.2, -0.0, -2.6, -3.79, -3.72, -4.47, -3.58, -3.16, -5.06, -5.69, 6.33, 6.33, 6.33, 6.71, 7.26, 7.26, 7.61, 7.61, 8.24, 8.24, 8.85, 8.85, 8.85, 8.85, 8.85, 8.85, 8.85, 9.17, 9.17, 9.17, 9.17, 9.17, 9.48, 9.8, 9.8, 9.8, 10.13, 10.73, 10.12, 10.45, 10.09, 10.19, 9.82, 9.56, 9.9, 10.04, 9.65, 9.43, 9.43, 9.05, 8.82, 8.43, 8.0, 8.24, 8.29, 9.2, 9.09, 8.93, 8.82, 9.64, 8.94, 8.49, 8.05, 7.45, 7.45, 6.64, 6.0, 4.65, 3.83, 3.45, 3.6, 4.11, 6.64, 5.73, 5.73, 6.26, 5.81, 5.36, 5.81, 5.81, 5.81, 6.71, 7.6, 7.6, 13.31, 11.6, 9.2, 11.2, -15.65, -16.31, -11.6, -8.91, -8.05, -6.71, -4.92, -4.47, 5.36, 5.36, -0.0, -1.7, -2.4, -3.79, -4.46, -5.81, -4.92, -2.0, -4.11, -5.06, 6.33, 6.33, 6.33, 6.71, 6.71, 6.98, 7.61, 7.61, 8.24, 8.24, 8.53, 8.85, 8.85, 8.85, 8.85, 8.85, 8.85, 8.85, 9.17, 9.17, 9.17, 9.17, 9.17, 9.17, 9.48, 9.48, 9.8, 9.8, 10.12, 9.77, 10.09, 9.49, 9.82, 9.46, 9.19, 9.52, 9.84, 9.65, 9.43, 9.05, 8.79, 8.82, 8.05, 7.89, 8.67, 9.86, 8.53, 5.0, 7.27, 9.11, 8.94, 8.49, 8.05, 7.6, 7.45, 7.01, 6.23, 4.6, 4.22, 3.83, 4.0, 4.11, 4.77, 6.58, 6.26, 5.81, 5.36, 5.36, 5.36, 5.36, 5.81, 5.73, 7.45, 8.05, 10.73, 9.66, 4.6, -4.0, -12.07, -13.23, -11.84, -9.64, -8.05, -6.26, -4.92, 0.0, 0.0, 6.71, -0.0, -3.47, -3.79, -4.29, -5.2, -7.15, -4.43, -2.4, -3.79, -4.11, 6.33, 6.33, 6.33, 6.71, 6.71, 6.71, 7.61, 7.61, 8.24, 8.24, 8.24, 8.85, 8.85, 8.85, 8.85, 8.85, 8.85, 8.85, 8.85, 8.85, 8.85, 8.85, 8.85, 8.85, 9.17, 9.17, 9.48, 9.8, 9.46, 9.77, 9.42, 9.73, 9.14, 9.46, 9.09, 9.19, 9.52, 9.52, 9.65, 9.05, 8.79, 8.82, 8.18, 8.4, 9.24, 10.68, 9.3, 0.0, 6.01, 7.6, 8.49, 8.49, 8.05, 7.6, 7.45, 7.01, 6.58, 5.4, 4.6, 4.4, 4.4, 4.0, 6.23, 6.51, 6.07, 5.64, 4.92, 5.81, 4.82, 5.36, 5.81, 5.94, 7.47, 7.89, 7.6, 8.48, 0.0, -9.2, -9.26, -8.77, -6.07, -4.34, -4.77, -6.79, -5.37, 0.0, 0.0, 7.15, -5.37, -3.97, -4.02, -5.01, -5.6, -8.05, -5.69, -3.2, -3.0, -3.0, 6.33, 6.33, 6.33, 6.33, 6.71, 6.97, 7.33, 7.61, 7.61, 8.24, 8.24, 8.53, 8.53, 8.85, 8.85, 8.85, 8.85, 8.85, 8.85, 8.85, 8.85, 8.54, 8.54, 8.54, 9.17, 9.17, 8.85, 9.15, 9.46, 9.46, 9.42, 9.73, 9.37, 8.79, 9.09, 9.09, 9.19, 9.14, 8.93, 9.27, 9.05, 8.42, 8.82, 8.82, 9.81, 11.34, 10.22, 8.05, 7.6, 7.15, 7.6, 8.05, 8.05, 8.05, 7.6, 7.45, 6.23, 5.81, 5.4, 5.09, 5.09, 4.73, 4.11, 7.01, 6.07, 5.64, 5.51, 5.36, 4.92, 5.81, 6.17, 6.16, 7.28, 7.12, 8.38, 6.71, -4.0, -9.2, -6.9, -4.4, -3.6, -3.6, -7.6, -8.55, -4.6, 0.0, 7.6, 7.15, -5.06, -3.97, -4.29, -4.29, -6.4, -8.05, 0.0, -3.8, -3.8, -3.8, 6.33, 6.33, 6.33, 6.33, 6.71, 6.97, 7.33, 7.33, 7.61, 8.24, 8.24, 8.24, 8.53, 8.85, 8.85, 8.85, 8.85, 8.85, 8.85, 8.85, 8.85, 8.24, 8.54, 8.54, 8.54, 8.85, 8.85, 8.85, 9.17, 9.12, 9.42, 9.08, 9.37, 8.79, 9.09, 9.09, 8.82, 8.82, 9.14, 8.93, 8.67, 8.42, 8.42, 8.82, 9.42, 10.6, 10.12, 8.94, 8.49, 8.05, 7.15, 7.15, 7.6, 7.6, 7.6, 7.45, 7.01, 6.23, 5.81, 5.51, 5.09, 5.16, 4.73, 6.64, 6.0, 5.6, 6.07, 5.36, 4.92, 5.29, 6.02, 6.21, 6.82, 7.42, 8.06, 8.87, 8.94, -6.95, -7.51, -6.79, -8.23, -10.37, -11.8, -9.8, -5.6, 0.0, 8.49, -0.0, -2.8, -3.72, -4.02, -3.2, -5.95, -8.0, 0.0, 0.0, 0.0, 0.0, 6.33, 6.33, 6.33, 6.33, 6.71, 6.97, 6.97, 7.33, 7.61, 8.24, 8.24, 8.24, 8.24, 8.24, 8.54, 8.54, 8.54, 8.54, 8.85, 8.85, 8.54, 8.24, 8.24, 8.24, 8.54, 8.85, 8.85, 8.85, 8.84, 8.84, 8.84, 9.08, 9.08, 9.01, 8.79, 9.09, 8.5, 8.82, 8.45, 8.55, 8.32, 8.67, 8.42, 8.42, 8.82, 9.36, 9.24, 9.24, 8.9, 8.44, 8.05, 7.6, 7.15, 7.15, 7.6, 7.45, 7.01, 6.58, 6.14, 5.94, 5.51, 5.16, 5.16, 4.6, 7.06, 6.64, 6.58, 5.36, 5.36, 5.51, 7.06, 6.21, 7.2, 7.82, 8.56, 8.45, 8.0, 8.41, 11.18, 0.0, -13.76, -13.28, -13.28, -11.7, -9.8, -7.9, 9.39, -0.0, -0.0, -4.74, -6.01, -5.6, -7.15, -6.01, 0.0, 0.0, 0.0, 0.0, 6.33, 6.33, 6.33, 6.33, 6.58, 6.97, 6.97, 7.33, 7.61, 7.61, 8.24, 8.24, 8.24, 8.24, 8.24, 8.54, 8.54, 8.54, 8.24, 8.24, 8.24, 8.24, 8.24, 8.24, 8.53, 8.53, 8.53, 8.53, 8.84, 8.84, 8.52, 8.82, 9.08, 8.73, 8.79, 8.44, 8.73, 8.5, 8.45, 8.23, 8.55, 8.32, 8.42, 8.42, 8.82, 8.82, 8.8, 8.72, 8.56, 8.77, 8.43, 7.97, 7.6, 7.15, 7.15, 7.15, 7.01, 7.01, 6.61, 6.17, 5.51, 5.59, 5.16, 4.77, 5.09, 7.5, 7.15, 5.81, 6.17, 6.02, 6.21, 6.6, 7.2, 8.06, 8.77, 8.94, 8.9, 9.24, 9.33, 10.32, 14.75, -8.2, -13.59, -13.59, -11.53, -7.9, 0.0, 10.28, -6.95, -6.64, -7.15, -4.92, -6.26, -6.4, 0.0, 0.0, 0.0, 0.0, 5.92, 5.92, 6.33, 6.33, 6.58, 6.97, 6.97, 7.26, 7.61, 7.61, 7.93, 8.24, 8.24, 8.24, 8.24, 8.24, 8.54, 8.53, 8.53, 8.53, 8.24, 8.24, 8.24, 8.24, 8.53, 8.53, 8.53, 8.53, 8.84, 8.52, 8.52, 8.52, 8.82, 8.49, 8.49, 8.79, 8.44, 8.5, 8.82, 8.23, 8.55, 8.32, 8.32, 8.06, 8.43, 8.43, 8.8, 8.72, 8.3, 8.48, 8.29, 7.81, 7.97, 7.6, 7.15, 7.15, 7.15, 7.06, 6.61, 6.61, 5.94, 5.59, 5.2, 4.77, 5.09, 7.5, 7.15, 6.71, 6.58, 6.64, 6.57, 6.7, 7.37, 8.29, 8.9, 8.94, 8.94, 8.9, 8.33, 8.29, 10.41, 15.2, -13.28, -15.99, -14.39, -9.17, -7.59, -9.83, -8.94, -3.79, -4.92, -4.92, -5.36, -5.6, -3.0, 0.0, 0.0, 0.0, 5.92, 5.92, 6.33, 6.33, 6.58, 6.58, 6.97, 7.26, 7.61, 7.61, 7.61, 7.93, 8.24, 8.24, 8.24, 8.24, 8.53, 8.53, 8.53, 8.53, 8.53, 8.24, 8.24, 8.53, 8.53, 8.53, 8.53, 8.84, 8.52, 8.52, 8.52, 8.52, 8.82, 8.49, 8.49, 8.49, 8.44, 8.73, 8.5, 8.45, 8.23, 8.55, 7.95, 8.06, 8.06, 8.43, 8.21, 8.21, 8.17, 8.48, 8.06, 8.24, 7.74, 7.52, 7.15, 7.15, 6.71, 6.71, 6.61, 5.94, 6.02, 5.59, 5.2, 4.77, 4.77, 7.45, 7.15, 6.71, 6.71, 6.64, 7.15, 7.1, 7.54, 8.0, 8.44, 8.45, 8.49, 8.49, 8.05, 7.54, 8.0, 11.62, -5.23, -16.39, -15.59, -13.15, -8.8, -6.26, -5.36, -5.36, -0.0, -3.79, -4.92, -6.26, -4.74, 0.0, 0.0, 0.0, 5.92, 5.92, 5.92, 6.33, 6.33, 6.58, 7.26, 7.26, 7.61, 7.61, 7.61, 7.93, 8.24, 8.24, 8.24, 8.24, 8.53, 8.53, 8.53, 8.53, 8.53, 8.53, 8.53, 8.21, 8.21, 8.21, 8.21, 8.22, 8.52, 8.52, 8.52, 8.52, 8.82, 8.49, 8.49, 8.49, 8.44, 8.44, 8.5, 8.15, 8.23, 8.23, 8.32, 7.95, 8.06, 8.43, 7.81, 8.21, 8.58, 8.17, 7.95, 7.95, 7.81, 7.97, 7.6, 7.15, 7.15, 6.71, 6.2, 6.2, 6.02, 5.64, 5.2, 4.8, 4.88, 6.2, 6.2, 6.2, 6.26, 6.64, 6.94, 7.37, 7.54, 7.54, 7.55, 7.55, 8.0, 7.6, 7.6, 7.15, 7.15, 8.05, 8.22, -11.8, -14.53, -13.44, -4.92, -4.92, -4.92, -5.81, -5.81, -4.11, -3.48, -5.81, 6.26, 0.0, 0.0, 0.0, 5.92, 5.92, 5.92, 6.33, 6.33, 6.61, 7.26, 7.26, 7.26, 7.61, 7.61, 7.61, 7.93, 8.24, 8.24, 8.53, 8.53, 8.53, 8.53, 8.53, 8.53, 8.53, 8.21, 8.21, 8.21, 8.21, 8.21, 8.22, 8.22, 8.52, 8.52, 8.52, 8.49, 8.49, 8.49, 7.88, 7.88, 8.19, 8.19, 8.15, 8.45, 8.23, 8.32, 7.95, 8.06, 7.69, 7.81, 8.21, 8.21, 8.17, 8.37, 7.95, 8.17, 7.52, 7.52, 7.6, 7.15, 7.15, 6.64, 6.2, 5.75, 5.64, 5.32, 5.33, 4.92, 6.26, 5.73, 6.17, 6.26, 6.2, 6.16, 6.21, 6.6, 7.37, 7.1, 7.1, 7.15, 7.6, 7.15, 7.15, 7.15, 7.15, 6.23, -4.6, -14.03, -11.18, -5.81, 4.47, 4.47, -5.36, -6.26, -6.71, -5.36, 5.36, 5.81, 0.0, 0.0, 0.0, 5.92, 5.92, 5.92, 6.61, 6.61, 6.61, 6.61, 7.26, 7.26, 7.61, 7.61, 7.61, 7.61, 7.61, 7.9, 8.21, 8.21, 8.53, 8.53, 8.53, 8.22, 8.22, 8.21, 8.21, 8.21, 8.21, 7.91, 8.22, 8.22, 8.52, 8.52, 8.19, 8.49, 8.49, 8.21, 7.88, 7.88, 8.19, 8.19, 7.85, 8.15, 8.23, 8.23, 7.95, 7.95, 7.69, 8.05, 7.81, 8.21, 8.17, 8.0, 7.95, 7.95, 7.97, 7.52, 7.6, 7.6, 7.15, 6.65, 6.65, 5.77, 5.77, 5.33, 5.33, 5.36, 5.36, 6.26, 5.81, 5.81, 5.81, 5.51, 5.58, 5.49, 5.49, 6.94, 7.1, 7.15, 7.15, 7.15, 7.15, 7.1, 7.1, 6.17, 0.0, -15.65, -12.96, -7.6, -2.53, -0.0, -0.0, -5.81, -7.6, -6.26, -4.92, -4.92, -5.36, -5.36, -5.36, 6.2, 6.2, 6.2, 6.2, 6.61, 6.61, 6.61, 6.98, 7.26, 7.61, 7.61, 7.61, 7.61, 7.61, 7.61, 8.21, 8.21, 7.91, 8.22, 8.22, 8.22, 7.91, 8.21, 8.21, 8.21, 8.21, 7.91, 7.91, 8.22, 8.52, 8.19, 8.19, 8.49, 8.21, 8.21, 7.88, 7.88, 8.19, 7.85, 7.85, 7.9, 7.9, 7.87, 7.95, 7.95, 7.69, 7.69, 7.81, 8.21, 8.21, 8.17, 8.37, 7.95, 7.74, 7.97, 7.6, 7.6, 7.15, 7.15, 6.65, 6.21, 5.81, 5.81, 5.81, 5.81, 5.81, 6.71, 5.81, 5.81, 6.17, 5.81, 5.51, 4.89, 4.43, 6.57, 6.88, 7.15, 7.15, 7.1, 7.1, 6.94, 7.1, 6.17, -14.75, -16.54, -14.3, -10.28, -3.48, -1.6, -0.0, -3.48, -7.15, -6.71, -4.92, -4.47, -4.47, -4.47, -4.47, 6.2, 6.2, 6.2, 6.2, 6.61, 6.61, 6.61, 6.98, 6.98, 7.26, 7.61, 7.61, 7.61, 7.61, 7.61, 7.91, 7.91, 7.91, 7.91, 7.91, 7.91, 7.91, 8.21, 8.21, 8.21, 7.91, 7.91, 7.91, 8.22, 8.52, 8.19, 8.19, 8.49, 8.21, 8.21, 7.88, 8.19, 8.19, 7.58, 7.58, 7.9, 7.9, 7.87, 7.61, 7.95, 7.92, 7.69, 7.67, 7.81, 8.21, 8.17, 8.17, 7.81, 7.81, 7.54, 7.6, 7.6, 7.6, 7.15, 6.71, 6.71, 6.26, 6.26, 6.26, 6.26, 6.26, 5.81, 5.81, 7.15, 6.71, 6.71, 6.26, 5.81, 5.26, 4.8, 5.6, 6.45, 6.88, 6.94, 6.57, 6.16, 6.45, 0.0, -13.86, -15.65, -13.86, -10.73, -7.15, -2.53, -2.53, -3.16, -5.06, -5.37, -4.8, -4.0, -3.16, -3.16, -3.16, 5.95, 5.95, 6.2, 6.2, 6.61, 6.61, 6.61, 6.98, 6.98, 7.26, 7.61, 7.61, 7.61, 7.61, 7.61, 7.91, 7.91, 7.91, 7.91, 7.91, 7.91, 7.91, 7.91, 7.91, 7.91, 7.91, 7.91, 7.91, 8.22, 7.9, 8.19, 8.19, 8.21, 8.21, 7.88, 7.88, 7.91, 7.91, 7.58, 7.58, 7.9, 7.9, 7.61, 7.61, 7.59, 7.59, 7.92, 7.67, 7.67, 8.4, 8.17, 8.17, 7.95, 7.81, 7.98, 7.54, 7.6, 7.6, 7.6, 7.15, 6.71, 6.71, 6.26, 6.26, 6.71, 6.71, 6.71, 5.81, 7.15, 6.71, 7.15, 7.1, 7.1, 6.64, 5.81, 5.51, 6.0, 6.57, 6.21, 6.21, 5.58, 5.6, 0.0, -10.96, -12.96, -11.18, -8.49, -5.36, -3.58, -3.6, -4.11, -5.69, -5.69, -4.43, -4.4, -3.48, -3.48, -3.48, 5.95, 5.95, 5.95, 5.95, 6.61, 6.61, 6.61, 6.61, 6.98, 6.98, 7.61, 7.61, 7.61, 7.61, 7.61, 7.91, 7.91, 7.91, 7.91, 7.91, 7.91, 7.91, 7.91, 7.91, 7.91, 7.91, 7.91, 7.91, 8.22, 7.9, 8.19, 8.19, 8.21, 8.21, 7.88, 7.88, 7.91, 7.91, 7.58, 7.9, 7.9, 7.61, 7.61, 7.61, 7.95, 7.59, 7.92, 8.24, 7.67, 8.4, 8.4, 8.3, 8.06, 8.29, 7.85, 8.0, 8.0, 7.55, 7.55, 7.15, 7.15, 7.15, 6.71, 6.71, 6.71, 6.71, 6.71, 6.67, 6.26, 7.15, 7.15, 7.15, 7.15, 7.1, 6.71, 6.2, 6.21, 6.6, 6.8, 6.21, 5.6, 5.81, 5.09, -8.06, -10.73, -9.83, -7.15, -4.47, -3.13, -4.02, -4.8, -5.06, -5.06, -4.74, -5.36, -5.81, -5.81, -5.81, 5.95, 5.95, 5.95, 5.95, 5.95, 6.61, 6.61, 6.61, 6.98, 6.98, 6.98, 7.32, 7.61, 7.61, 7.91, 7.91, 7.91, 7.91, 7.91, 7.91, 7.91, 7.91, 7.91, 7.91, 7.91, 7.91, 7.91, 7.91, 8.22, 7.9, 7.9, 8.21, 8.21, 8.21, 7.88, 8.19, 7.91, 7.91, 7.91, 7.61, 7.61, 7.96, 7.61, 7.95, 7.95, 7.95, 7.92, 8.24, 7.85, 8.4, 8.0, 8.56, 8.14, 8.33, 8.33, 7.89, 7.85, 7.85, 7.42, 7.54, 7.1, 7.1, 7.1, 7.11, 7.11, 7.12, 7.12, 7.12, 6.66, 7.1, 7.15, 6.71, 6.71, 6.71, 6.26, 6.02, 6.21, 7.2, 7.2, 7.12, 6.26, 6.64, 5.73, 6.71, -9.39, -8.94, -6.71, -4.92, -3.13, -3.13, -4.02, -4.02, -5.36, -7.15, -6.26, -4.02, -4.02, -4.02, 5.95, 5.95, 5.95, 5.95, 5.95, 6.61, 6.61, 6.61, 6.98, 6.98, 6.98, 6.98, 6.98, 7.27, 7.27, 7.56, 7.91, 7.91, 7.91, 7.91, 7.91, 7.91, 7.91, 7.91, 7.91, 7.91, 7.91, 8.22, 8.22, 7.9, 7.9, 8.21, 8.21, 7.88, 7.88, 7.91, 7.91, 7.91, 8.24, 7.61, 7.61, 7.96, 7.96, 7.95, 7.95, 8.3, 7.92, 8.24, 7.67, 8.0, 8.0, 8.56, 8.56, 8.14, 8.14, 7.71, 7.71, 7.63, 7.85, 7.37, 6.94, 7.1, 7.1, 7.11, 7.11, 7.11, 7.12, 7.12, 6.98, 6.64, 6.71, 6.71, 6.64, 6.64, 6.71, 6.2, 6.0, 6.21, 7.2, 7.15, 7.1, 6.94, 7.1, 4.74, -8.77, -9.39, -8.33, -6.51, -5.81, -3.58, -2.68, -3.13, -2.84, -4.8, -3.6, -3.13, -3.13, -3.13, 5.29, 5.29, 5.95, 5.95, 5.95, 6.34, 6.61, 6.61, 6.61, 6.98, 6.98, 6.98, 7.27, 7.27, 7.27, 7.27, 7.56, 7.56, 7.91, 7.91, 7.91, 7.91, 7.91, 7.91, 7.91, 7.91, 7.91, 8.22, 8.22, 7.9, 8.21, 8.21, 8.21, 8.21, 8.19, 7.91, 7.91, 7.91, 8.24, 7.94, 7.96, 7.64, 7.64, 7.68, 7.68, 8.06, 7.69, 8.05, 8.05, 8.4, 8.0, 8.3, 8.3, 8.56, 8.14, 8.14, 7.71, 7.63, 7.63, 7.12, 7.12, 7.37, 6.94, 6.94, 6.98, 6.98, 6.98, 7.42, 7.45, 7.01, 6.23, 7.15, 6.64, 6.64, 6.64, 6.71, 6.71, 6.64, 7.1, 7.6, 7.54, 7.54, 7.54, 6.36, -9.11, -11.18, -10.6, -8.72, -8.33, -7.81, -4.92, -3.13, -2.8, -2.8, -2.8, -3.58, -3.58, -3.58, 5.29, 5.29, 5.7, 5.95, 5.95, 5.95, 6.34, 6.34, 6.61, 6.98, 6.98, 6.98, 7.27, 7.27, 7.27, 7.27, 7.56, 7.56, 7.56, 7.56, 7.91, 7.91, 7.91, 7.91, 7.91, 7.91, 8.22, 8.22, 8.22, 7.9, 8.21, 8.21, 8.21, 8.21, 8.53, 7.91, 7.91, 8.24, 7.94, 7.94, 8.3, 7.64, 7.64, 7.68, 7.68, 7.68, 8.06, 7.69, 8.05, 8.05, 8.0, 8.3, 8.3, 8.3, 7.89, 7.89, 7.89, 7.63, 7.63, 7.53, 6.8, 7.12, 7.12, 7.37, 7.37, 7.42, 7.42, 7.42, 7.85, 7.45, 6.58, 7.15, 6.64, 7.45, 6.64, 6.65, 7.15, 7.15, 7.15, 7.1, 7.15, 7.15, 7.15, 6.71, -8.94, -11.06, -11.03, -10.18, -9.33, -9.13, -8.77, -6.26, -3.58, -3.13, -3.58, -4.92, -4.92, -4.92, 5.29, 5.29, 5.29, 5.7, 5.95, 5.95, 6.34, 6.34, 6.34, 6.34, 7.27, 7.27, 7.27, 7.27, 7.27, 7.27, 7.56, 7.56, 7.56, 7.56, 7.56, 7.56, 7.91, 7.91, 7.56, 7.88, 7.88, 8.22, 8.22, 7.9, 8.21, 8.21, 8.21, 8.21, 8.53, 8.24, 7.91, 8.24, 7.94, 7.94, 8.3, 7.64, 7.64, 8.03, 7.68, 7.68, 8.06, 7.69, 8.05, 8.05, 7.82, 7.82, 8.0, 8.0, 7.89, 7.89, 7.89, 7.76, 7.35, 7.2, 7.2, 6.8, 6.8, 7.12, 7.12, 7.37, 7.42, 7.85, 7.85, 7.42, 6.55, 5.34, 5.36, 7.6, 6.26, 6.71, 6.71, 7.15, 6.71, 7.1, 7.1, 7.15, 7.15, 6.71, 8.49, -10.28, -10.32, -9.75, -9.33, -8.72, -8.72, -7.45, -5.64, -4.77, -5.09, -5.6, -5.6, -5.6, 5.29, 5.29, 5.29, 5.7, 5.95, 5.95, 6.34, 6.34, 6.34, 6.34, 7.27, 7.27, 7.27, 7.27, 7.27, 7.27, 7.56, 7.56, 7.56, 7.56, 7.56, 7.56, 7.91, 7.91, 7.56, 7.88, 7.88, 8.22, 8.22, 7.9, 8.21, 8.21, 8.21, 8.21, 8.53, 8.24, 7.91, 8.24, 7.94, 7.94, 8.3, 7.64, 7.64, 8.03, 7.68, 7.68, 8.06, 7.69, 8.05, 8.05, 7.82, 7.82, 8.0, 8.0, 7.89, 7.89, 7.89, 7.76, 7.35, 7.2, 7.2, 6.8, 6.8, 7.12, 7.12, 7.37, 7.42, 7.85, 7.85, 7.42, 6.55, 5.34, 5.36, 7.6, 6.26, 6.71, 7.15, 7.15, 6.71, 7.1, 7.1, 7.1, 7.15, 7.15, 7.63, -8.0, -9.39, -9.74, -9.7, -9.7, -9.33, -8.72, -7.6, -7.37, -6.79, -7.21, -7.21, -7.21]}, {"header": {"dx": 0.06612293990616946, "dy": 0.0552356325346848, "nx": 98, "ny": 59, "la1": 35.046912555036876, "la2": 31.78801023549047, "lo1": -121.43107172385933, "lo2": -114.95102361305473, "refTime": "2026040719", "parameterCategory": 1, "parameterNumber": 3}, "data": [-9.37, -9.37, -9.08, -8.82, -8.22, -7.6, -6.98, -6.34, -5.7, -5.29, -3.97, -2.86, -2.59, -1.75, -1.67, -0.94, -2.12, -5.26, -6.51, -6.94, -6.8, -6.44, -4.74, -3.91, -3.91, -3.91, -3.91, -3.91, -4.89, -4.54, -5.75, -5.4, -5.26, -4.92, -5.26, -4.98, -5.51, -5.2, -4.98, -4.11, -3.22, -3.0, -4.37, -5.86, -6.24, -8.21, -10.3, -11.45, -12.26, -10.01, -4.58, -2.6, 0.0, 5.37, 7.07, 4.96, 4.2, 1.84, 0.0, 0.0, 0.0, 0.0, 0.0, 0.0, 1.63, 1.73, 0.0, 0.0, 0.0, 0.0, 0.0, 0.0, 0.0, 0.0, 0.0, 0.0, -3.39, -8.22, -11.6, -12.52, -10.28, -7.15, -5.81, -3.16, 0.0, 0.0, 0.0, 0.0, 0.0, 1.41, 7.81, 9.83, 11.18, 12.07, 12.52, 12.52, 10.73, 5.6, -9.37, -9.37, -9.08, -8.82, -8.82, -7.93, -7.32, -6.7, -5.95, -5.7, -4.66, -4.25, -3.49, -3.06, -2.58, -2.46, -1.65, -3.97, -6.71, -6.61, -7.47, -6.79, -6.44, -4.56, -3.91, -3.91, -3.91, -4.43, -5.24, -5.58, -5.6, -5.51, -5.73, -5.36, -5.81, -5.51, -5.94, -6.45, -5.6, -4.89, -5.06, -6.32, -7.9, -8.64, -10.58, -12.01, -12.63, -12.56, -12.01, -6.32, -4.16, -3.45, 0.0, 5.37, 5.37, 3.8, 1.75, 0.0, 0.0, 0.0, 0.0, 0.0, 0.0, 0.0, 0.0, 0.0, 0.0, 0.0, 0.0, 0.0, 0.0, 0.0, 0.0, -2.49, -2.17, -2.17, -5.7, -8.22, -11.6, -12.52, -10.28, -7.15, -5.81, -3.16, 0.0, 0.0, 0.0, 0.0, 0.0, 1.41, 7.81, 9.83, 11.18, 12.07, 12.52, 12.52, 10.73, 5.6, -9.37, -9.37, -9.08, -9.08, -8.82, -8.24, -7.93, -6.98, -6.34, -5.7, -5.08, -4.45, -4.4, -4.0, -3.15, -2.69, -2.57, -2.83, -5.37, -7.6, -6.45, -7.47, -7.15, -6.01, -4.83, -3.91, -3.91, -4.89, -5.58, -6.21, -6.6, -6.57, -6.45, -7.15, -5.81, -6.94, -6.02, -6.88, -7.12, -6.8, -7.67, -9.3, -11.76, -14.19, -15.64, -15.45, -14.22, -12.96, -6.79, -5.69, -4.58, -3.4, 0.0, 4.22, 5.06, 3.6, 1.67, 0.0, 0.0, 0.0, 0.0, -2.06, -1.84, -1.95, -1.95, -1.67, -1.54, -1.69, -1.52, -1.58, -1.71, -2.06, -4.48, -4.8, -3.6, -3.6, -4.4, -9.17, -13.15, -13.41, -10.28, -8.05, -7.6, -5.6, -3.6, -1.74, -1.8, -1.05, 0.0, 2.54, 10.73, 11.62, 11.62, 11.62, 11.4, 10.52, 6.26, 4.34, -9.71, -9.37, -9.08, -9.08, -8.82, -8.82, -7.93, -7.61, -6.98, -6.08, -5.72, -5.72, -5.29, -4.0, -4.34, -4.34, -4.34, -3.81, -5.24, -6.64, -7.1, -6.94, -7.15, -6.64, -6.32, -6.01, -4.74, -4.89, -5.94, -6.94, -7.63, -8.56, -8.06, -8.38, -7.6, -7.45, -7.47, -8.4, -9.66, -10.55, -12.03, -14.4, -15.97, -15.78, -14.47, -13.55, -10.75, -5.31, -4.74, -5.37, -4.22, -1.4, 1.63, 3.2, 3.4, 1.67, 0.0, 0.0, 0.0, 0.0, -1.84, -1.58, -1.84, -1.84, -1.75, -1.84, -1.62, -1.45, -3.19, -3.04, -5.46, -7.32, -9.22, -9.77, -6.32, -5.1, -4.4, -8.85, -14.42, -13.41, -8.49, -5.51, -6.79, -5.51, -3.82, -3.16, -3.22, -2.4, 0.0, 10.18, 12.52, 11.62, 11.18, 10.58, 7.89, 4.4, 4.47, 6.36, -9.71, -9.42, -9.42, -9.08, -8.82, -8.82, -8.24, -7.93, -7.32, -6.7, -6.35, -5.72, -5.64, -4.56, -4.34, -4.56, -4.6, -5.06, -5.21, -6.82, -8.49, -7.45, -6.8, -7.15, -7.28, -7.33, -7.28, -7.47, -7.45, -7.15, -8.05, -9.35, -9.97, -9.92, -9.83, -9.83, -10.18, -10.88, -12.56, -15.29, -15.37, -13.42, -11.39, -10.12, -9.89, -8.15, -5.31, -3.4, -2.26, -3.97, -1.63, 0.0, 1.63, 3.4, 1.58, 0.0, 0.0, 0.0, 0.0, -1.69, -1.75, -1.32, -1.4, -1.58, -1.84, -1.62, -3.11, -2.97, -2.95, -3.32, -5.46, -10.02, -13.1, -13.59, -11.62, -6.9, -5.1, -5.21, -11.62, -12.52, -4.92, -4.66, -5.51, -6.79, -4.09, -2.95, -2.2, 0.0, 11.62, 13.41, 12.52, 10.73, 10.73, 5.51, 4.29, 3.16, 5.2, 8.48, -9.71, -9.42, -9.42, -9.42, -9.08, -8.82, -8.53, -7.93, -7.61, -7.32, -6.35, -6.34, -6.04, -4.56, -3.81, -4.2, -5.21, -5.46, -6.42, -6.64, -7.81, -9.32, -8.91, -8.72, -8.3, -8.05, -8.72, -8.48, -8.82, -8.94, -8.45, -8.9, -8.9, -10.73, -12.07, -11.62, -11.46, -12.38, -14.11, -15.6, -14.42, -11.85, -8.79, -8.35, -8.22, -7.51, -5.4, -2.1, 0.0, 0.0, 0.0, 0.0, 1.73, 1.73, 0.0, 0.0, 0.0, 0.0, 0.0, -1.76, -1.84, 0.0, 0.0, -1.58, -1.47, -1.62, -3.11, -2.83, -2.69, -2.82, -3.96, -8.31, -14.55, -15.65, -15.43, -13.59, -8.0, -5.21, -5.09, -9.39, -5.36, -6.07, -6.07, -7.37, -6.4, -3.6, 2.54, 11.28, 14.3, 13.41, 11.18, 12.39, 8.91, 4.89, 2.99, 2.48, 7.6, 9.33, -9.42, -9.42, -9.42, -9.42, -9.42, -8.82, -8.82, -8.53, -7.93, -7.32, -6.97, -6.34, -6.04, -4.83, -3.77, -4.4, -4.4, -5.7, -6.7, -6.51, -6.01, -7.08, -9.11, -10.05, -9.75, -10.08, -10.58, -10.58, -10.62, -8.89, -9.83, -8.56, -7.82, -7.95, -10.66, -12.07, -12.44, -11.62, -12.86, -12.93, -13.34, -11.71, -11.72, -11.26, -11.33, -8.44, -6.21, -3.39, -2.54, 0.0, 0.0, 0.0, 0.0, 0.0, 0.0, 0.0, 0.0, 0.0, 0.0, 0.0, 0.0, 0.0, 0.0, 0.0, 0.0, 0.0, -1.62, -3.32, -2.4, -1.47, 0.0, 0.0, -12.07, -13.88, -15.2, -15.65, -13.86, -8.24, -5.51, -9.54, -7.6, -7.37, -7.6, -7.44, -8.55, 0.0, 10.8, 13.23, 13.86, 12.96, 12.07, 11.45, 5.58, 4.19, 1.98, 3.22, 8.49, 7.81, -9.42, -9.42, -9.42, -9.42, -9.42, -9.42, -8.82, -8.53, -8.53, -8.22, -7.59, -7.56, -6.48, -6.31, -5.69, -4.71, -4.6, -5.14, -5.95, -6.57, -4.92, -3.91, -4.74, -6.36, -10.73, -10.28, -10.73, -11.4, -11.03, -11.06, -10.28, -11.09, -10.05, -9.6, -10.62, -12.07, -12.07, 11.18, -10.4, -9.83, -10.73, -10.41, -12.46, -12.72, -8.43, -7.15, -5.44, -4.46, -5.1, -5.69, -1.7, -1.52, -1.73, -1.4, -1.49, 0.0, 0.0, 0.0, 0.0, 0.0, 0.0, 0.0, -1.14, 0.0, 0.0, 0.0, 0.0, -1.47, -1.32, 0.0, 2.17, 5.7, 11.18, -0.0, -6.0, -12.14, -12.52, -12.07, -12.14, -14.3, -15.65, -11.71, -7.81, -7.81, -3.39, 5.4, 11.2, 12.58, 12.71, 12.07, 10.96, 4.98, 4.89, 3.72, 2.16, 4.43, 8.05, 8.24, -9.42, -9.42, -9.42, -9.42, -9.42, -9.42, -9.42, -8.53, -8.53, -8.5, -8.52, -9.46, -10.24, -9.16, -8.02, -7.59, -7.42, -6.98, -6.57, -6.41, -6.24, -5.1, -3.63, 0.0, 2.32, 2.54, 0.0, -9.83, -11.91, -11.62, -11.62, -12.83, -12.39, -4.38, 0.0, 0.0, 9.3, 9.6, 6.64, -4.74, -7.15, -8.38, -8.06, -6.08, -5.58, -2.95, -4.22, -2.06, -3.91, -5.37, -6.01, -3.97, -3.4, -1.49, -1.4, -1.47, -1.33, -1.45, -1.45, -1.33, -1.47, -1.32, -1.05, -0.96, 0.0, 0.0, -1.33, -1.47, -1.23, 0.0, 0.0, 1.84, 6.45, 12.07, 7.9, -6.95, -8.94, -10.28, -12.96, -15.2, -16.05, -14.3, -9.33, -4.71, 0.0, 3.25, 8.93, 10.6, 10.41, 9.54, 5.2, 3.93, 3.35, 3.91, 2.99, 5.6, 8.05, 8.05, -9.42, -9.42, -9.42, -9.76, -9.42, -9.42, -9.42, -9.13, -8.53, -8.82, -9.46, -10.06, -9.42, -10.19, -10.18, -10.6, -10.94, -10.94, -10.61, -9.27, -7.59, -3.25, 0.0, 4.83, 6.44, 5.37, 5.37, 6.95, -8.22, -11.62, -12.52, 0.0, 12.07, 10.0, 8.94, 9.75, 8.48, 7.21, 6.26, 5.36, 3.13, -1.6, -2.76, -1.84, 0.0, 0.0, 0.96, 0.0, 0.0, -2.32, -3.97, -5.37, -4.56, -4.14, -2.83, -2.7, -4.23, -4.4, -4.4, -4.6, -4.4, -3.68, -4.46, -2.8, -1.63, -1.18, -1.33, -1.33, -1.01, -1.18, 0.0, 0.0, 0.0, 3.68, 7.59, 0.0, 0.0, -6.32, -11.18, -13.15, -13.39, -16.05, -13.41, -5.37, 0.0, 1.73, 3.6, 4.71, 5.69, 4.11, 2.98, 2.68, 3.22, 3.63, 3.91, 4.11, 7.47, 7.01, -9.42, -9.76, -9.76, -9.76, -9.76, -9.76, -9.42, -9.13, -9.13, -9.42, -9.76, -10.7, -9.78, -8.54, -8.85, -10.12, -11.88, -13.03, -13.02, -13.05, -7.8, 17.43, 16.54, 14.3, 12.07, 7.6, 5.36, 5.36, 8.06, 7.59, 10.73, 6.26, 6.26, 5.7, 5.81, 8.91, 8.91, 6.51, 5.4, 5.21, 5.58, 2.99, 0.88, 0.0, 1.52, 1.84, 1.84, 0.0, 0.0, -1.03, -2.76, -3.22, -4.11, -4.47, -4.96, -5.1, -6.76, -7.02, -7.73, -7.15, -6.32, -5.03, -5.69, -5.37, -3.6, -2.69, -2.7, -3.7, -3.4, -3.6, -4.83, -3.98, -2.28, -2.6, -3.25, -3.39, 0.0, 0.0, 0.0, 0.0, -12.79, -15.18, -15.2, -12.3, -3.22, 0.0, 0.0, 0.0, 0.0, 0.0, 0.0, 2.0, 2.95, 3.22, 3.22, 3.91, 6.13, 4.98, -9.66, -9.42, -9.76, -9.76, -9.76, -9.76, -9.76, -9.46, -9.13, -9.46, -9.76, -10.39, -10.09, -8.59, -6.68, -5.23, -5.3, -5.78, -6.51, -4.66, 13.41, 7.9, 7.68, 8.23, 4.74, 2.8, 2.8, 2.15, 5.2, 6.26, 6.26, 5.73, 5.73, 5.26, 4.82, 4.98, 4.19, 4.74, 4.74, 4.58, 4.58, 3.72, 1.84, 1.41, 0.0, 0.96, 0.0, 0.0, -2.82, -3.2, -4.11, -4.54, -4.98, -4.89, -5.49, -6.01, -7.27, -9.27, -10.19, -8.55, -6.28, -6.9, -7.6, -6.8, -5.1, -4.0, -4.8, -6.45, -7.59, -8.03, -7.27, -7.59, -6.64, -6.32, -6.64, -8.93, -7.59, -4.6, 0.0, 0.0, 0.0, -12.07, -12.52, -14.75, -10.41, -5.06, -4.83, -3.15, -1.49, -1.41, 0.0, 0.0, 2.0, 1.83, 1.84, 3.45, 4.89, 4.89, -9.94, -9.42, -9.42, -9.76, -9.76, -9.76, -9.76, -9.46, -9.46, -9.46, -9.78, -10.06, -10.09, -9.8, -8.2, -6.4, -4.62, -2.84, -1.79, -0.93, 0.0, 9.83, 4.83, 2.4, 1.94, 1.35, 1.35, 2.4, 4.43, 5.75, 5.81, 5.73, 5.73, 5.73, 5.51, 4.98, 4.11, 3.72, 3.0, 2.64, 2.64, 2.8, 1.99, 0.98, 0.0, 0.0, 0.0, 0.0, -3.2, -5.06, -5.58, -6.57, -6.4, -6.13, -6.32, -6.64, -5.69, -10.28, -11.62, -6.71, 0.0, 0.0, -6.32, -6.08, -5.69, -3.72, -4.29, -8.55, -10.6, -11.18, -10.18, -9.33, -8.3, -7.47, -7.6, -9.6, -10.0, -9.75, -10.73, -7.59, 0.0, 0.0, -11.18, -13.41, -12.14, -11.2, -8.58, -6.08, -5.37, -3.2, -1.84, 0.0, 0.0, 0.0, 1.32, 2.32, 3.63, 4.11, -9.94, -9.42, -9.42, -9.42, -9.76, -9.76, -9.46, -9.46, -9.46, -9.46, -9.78, -9.48, -10.09, -10.12, -9.5, -7.5, -6.36, -4.55, -3.44, -2.3, -2.53, -1.71, 0.0, 3.68, -0.0, -0.0, 2.17, 2.8, 4.11, 5.37, 6.2, 5.81, 6.58, 5.51, 5.51, 4.54, 3.63, 1.98, 0.89, 0.89, 0.89, 1.99, 1.7, 2.2, 3.48, 3.79, 2.95, 1.63, 0.0, 0.0, -5.46, -7.59, 0.0, 13.86, 11.2, 8.22, 2.97, -8.05, -3.39, 2.95, 6.17, 6.07, 2.6, -2.8, -3.49, -2.8, -3.47, -5.2, -9.83, -8.05, -10.28, -10.58, -10.73, -9.83, -9.83, -11.18, -10.73, -7.6, -8.05, -7.6, -3.2, 0.0, 0.0, 0.0, -8.85, -9.48, -12.96, -10.28, -5.64, -5.21, -3.47, -3.79, -2.73, -1.3, 0.0, 1.05, 1.99, 2.76, -9.94, -9.66, -9.42, -9.42, -9.42, -9.76, -9.72, -9.72, -9.72, -10.06, -9.48, -9.8, -9.8, -9.8, -9.5, -8.57, -7.5, -6.36, -5.25, -3.96, -3.35, -3.81, -3.68, -6.2, 0.0, 0.0, 0.0, 8.94, 5.81, 4.92, 4.92, 4.87, 6.07, 6.07, 5.6, 5.72, 4.29, 0.89, 0.0, 0.0, 0.0, 1.41, 2.98, 3.79, 5.09, 5.09, 5.51, 4.11, 2.8, 3.0, 2.54, 6.64, 7.6, 6.71, 6.51, 5.21, 4.43, 7.6, 5.69, 6.51, 6.71, 7.15, 6.51, 4.84, 2.12, 0.0, 0.0, 0.0, -4.92, -6.4, -5.59, -5.29, -0.0, 2.6, 5.7, 4.2, -0.0, -3.2, -4.47, -5.36, -5.94, -4.74, -6.32, 0.0, 0.0, 5.6, 0.0, -10.0, -8.49, -6.4, -5.95, -6.0, -4.46, -2.98, -1.41, 0.0, 0.96, 0.96, -9.94, -9.94, -9.66, -9.42, -9.66, -10.01, -9.72, -9.72, -9.72, -10.06, -9.77, -9.8, -9.8, -9.8, -9.8, -8.85, -7.76, -7.06, -6.4, -5.08, -4.43, -4.46, -4.97, -4.52, -2.02, 0.0, 2.06, 3.68, 3.65, 4.56, 5.2, 3.74, 3.82, 5.64, 6.23, 5.82, 3.72, 1.03, 0.0, 0.0, 0.0, 2.95, 4.11, 4.46, 5.09, 5.36, 5.36, 5.09, 4.46, 4.84, 4.84, 5.21, 6.07, 5.51, 4.84, 4.11, 4.11, 4.84, 5.51, 6.51, 5.73, 5.64, 5.51, 5.6, 5.58, 5.58, 4.29, 3.4, 0.0, -5.36, -1.14, 3.11, 8.85, 11.03, 9.39, 5.36, 4.0, -2.6, -5.36, -5.81, -7.15, -7.37, -7.21, -6.8, -5.37, 0.0, 9.2, 0.0, -8.49, -5.37, -6.01, -5.81, -5.09, -2.6, -1.14, -0.96, 0.0, 0.0, -9.94, -9.94, -9.66, -9.66, -9.66, -10.01, -9.72, -9.72, -9.72, -10.06, -9.77, -9.8, -9.5, -9.8, -9.5, -9.14, -8.04, -7.32, -6.64, -5.46, -4.43, -4.24, -4.13, -2.9, -1.1, 0.0, 0.0, 0.0, 0.0, 0.0, 2.02, 5.69, 5.26, 6.51, 6.2, 6.51, 5.94, 3.79, 2.0, 1.8, 4.4, 4.57, 5.6, 4.29, 5.64, 5.64, 5.51, 5.09, 4.4, 3.48, 3.48, 4.46, 4.46, 3.79, 2.98, 3.22, 3.22, 4.11, 5.6, 6.0, 5.6, 4.84, 3.79, 3.79, 2.98, 2.95, 3.47, 3.72, 1.63, 0.0, 4.71, 8.59, 12.46, 11.62, 7.08, 6.45, 5.64, 0.0, -6.26, -6.26, -6.71, -7.45, -7.89, -7.89, -8.06, -6.0, 2.2, 0.0, 0.0, 0.0, -8.94, -5.2, -6.26, -4.74, -3.72, -2.4, -1.08, -1.08, -9.94, -9.94, -9.66, -9.66, -9.66, -10.01, -9.72, -9.72, -9.72, -9.77, -9.77, -9.8, -9.5, -9.8, -9.5, -8.49, -8.72, -8.0, -6.64, -5.15, -3.85, -4.17, -3.91, -2.47, -0.86, -0.95, -1.15, -1.2, -1.38, -1.77, 0.0, 5.0, 8.67, 6.26, 5.36, 7.15, 6.64, 6.26, 5.81, 5.36, 5.81, 6.07, 6.07, 6.0, 6.0, 6.0, 4.43, 4.46, 3.48, 3.48, 3.48, 3.48, 3.48, 2.98, 1.84, 1.41, 3.22, 3.22, 4.11, 4.11, 3.22, 3.22, 1.7, 1.7, 0.0, 1.08, 0.96, 1.98, 5.46, 11.18, 10.04, 10.4, 10.62, 6.71, 6.45, 5.58, 4.89, 4.46, 0.0, -5.81, -5.36, -6.26, -7.15, -9.39, -7.81, -7.21, -5.69, 0.0, 1.84, 3.6, 0.0, -5.94, -6.71, -6.32, -3.97, -4.11, -3.48, -3.48, -9.59, -9.94, -9.71, -9.66, -9.66, -9.66, -9.72, -9.72, -9.72, -9.77, -9.77, -9.8, -9.5, -9.5, -9.5, -9.77, -8.49, -8.33, -6.72, -4.48, -3.93, -4.95, -5.35, -4.64, -3.97, -4.05, -5.46, -2.43, 0.0, -9.48, -12.96, 0.0, 10.73, 8.94, 6.71, 5.94, 6.02, 5.29, 5.81, 5.81, 4.92, 4.82, 5.94, 5.6, 5.72, 4.29, 4.02, 3.22, 2.2, 2.2, 3.48, 3.48, 2.2, 1.7, 1.84, 1.41, 1.84, 3.22, 3.22, 1.41, 1.84, 1.84, 1.41, 0.0, 0.0, 0.0, 0.0, 0.88, 3.32, 7.59, 6.7, 6.9, 9.6, 9.2, 4.98, 5.6, 5.6, 5.37, 5.2, 5.51, 5.2, -0.0, -4.2, -9.83, -9.83, -8.48, -8.4, -6.01, 0.0, 2.97, 2.4, -6.26, -7.6, -8.05, -5.06, -4.43, -5.2, -5.2, -9.59, -9.59, -9.71, -9.42, -9.66, -9.66, -9.72, -9.72, -9.72, -9.77, -9.77, -9.8, -9.5, -9.5, -9.8, -8.87, -8.51, -8.17, -7.9, -6.79, -6.4, -7.5, -8.74, -8.31, -9.8, -10.02, -13.99, 10.75, 12.65, 6.0, -0.0, 0.0, 10.28, 8.94, 8.05, 6.51, 5.2, 5.4, 5.4, 4.77, 4.47, 4.38, 3.45, 3.09, 3.48, 2.82, 2.49, 1.52, 2.2, 2.0, 3.48, 3.48, 3.48, 2.98, 2.2, 1.99, 1.73, 1.55, 0.88, 0.0, 0.0, 0.0, 0.0, 0.0, 0.0, 0.0, 0.0, 0.96, 1.72, 2.82, 2.69, 2.72, 3.69, 5.94, 10.75, 8.4, 7.89, 8.38, 7.06, 6.17, 6.71, 6.44, 4.0, -0.0, -0.0, -5.06, -5.36, -4.92, 0.0, 0.0, 1.84, 3.8, 0.0, -8.05, -5.37, -5.37, -4.43, -4.43, -9.59, -9.59, -9.71, -9.42, -9.66, -9.66, -9.72, -9.72, -9.72, -10.06, -9.77, -10.09, -9.5, -9.5, -9.8, -9.5, -8.51, -8.54, -8.85, -9.7, -9.94, -10.33, -11.22, -10.92, -10.87, -9.87, -7.0, 13.59, 10.73, 8.55, 6.32, 8.49, 6.01, 6.01, 6.8, 6.71, 5.81, 5.51, 5.94, 6.26, 5.81, 5.64, 5.81, 4.89, 4.12, 4.29, 1.63, 1.84, 3.48, 4.4, 3.48, 3.48, 3.48, 3.79, 3.22, 2.76, 2.8, 0.89, 0.0, -1.52, -1.41, 0.0, 0.0, 0.0, 0.0, 1.27, 1.08, 1.05, 1.98, 2.06, 2.28, 0.0, -3.49, -3.24, 0.0, 13.86, 13.86, 12.96, 10.14, 7.52, 6.61, 7.15, 7.2, 3.97, 2.12, -0.0, -2.84, -4.02, -5.2, -2.8, 0.0, 4.4, 9.83, -0.0, 0.0, 0.0, -3.79, -3.79, -9.59, -9.59, -9.71, -9.71, -9.66, -9.66, -10.01, -9.72, -9.72, -10.06, -9.77, -10.09, -9.5, -9.5, -9.5, -9.5, -8.59, -8.53, -9.76, -10.94, -10.32, -9.54, -10.43, -11.3, -10.47, -7.92, -3.69, 0.0, 6.64, 7.15, 6.71, 4.43, 3.0, 3.0, 3.2, 4.74, 6.26, 4.92, 5.81, 6.26, 6.26, 6.07, 5.81, 5.6, 4.73, 3.49, 3.0, 3.48, 4.66, 5.09, 4.46, 3.79, 3.79, 3.79, 3.22, 2.8, 3.0, 2.09, 0.0, -2.8, -3.22, -1.99, -1.99, -1.08, 0.0, 0.0, 0.98, 1.19, 1.99, 2.66, 2.99, 0.0, -13.44, -13.39, 4.0, 9.8, 13.76, 15.78, 13.41, 10.18, 7.74, 6.64, 6.71, 6.14, 6.36, 4.4, -0.0, 0.0, 0.0, -8.4, -7.9, 10.28, 6.8, 3.48, 0.0, 0.0, -4.11, -4.11, -9.59, -9.59, -9.59, -9.94, -9.66, -9.66, -10.01, -9.72, -9.72, -10.06, -9.77, -9.77, -9.8, -9.5, -9.5, -9.5, -8.86, -8.87, -9.73, -10.25, -9.07, -7.36, -7.13, -8.73, -10.43, -8.4, -6.29, -4.24, -1.76, 0.0, 0.0, 3.0, 0.0, 0.0, 0.0, 0.0, 2.4, 4.4, 4.66, 5.51, 6.07, 6.07, 6.14, 6.14, 5.16, 4.27, 4.46, 4.92, 5.81, 5.64, 5.64, 4.84, 4.11, 3.79, 2.98, 3.22, 2.8, 2.82, 0.0, -3.48, -4.98, -3.79, -2.95, -2.23, 0.0, 0.0, 0.0, 1.08, 0.96, 0.96, 1.73, 3.16, -4.38, -2.69, -0.0, -0.0, 4.52, 13.39, 15.34, 13.86, 10.18, 8.05, 6.71, 6.71, 6.26, 5.81, 5.36, 7.01, 7.27, 2.82, -5.6, -0.0, 2.84, 2.53, 0.0, 0.0, -3.48, -3.48, -9.86, -9.86, -9.59, -9.59, -9.66, -9.66, -10.01, -9.72, -9.72, -10.06, -9.77, -9.77, -9.8, -9.5, -9.5, -9.5, -9.21, -9.14, -10.02, -9.55, -9.34, -7.6, -6.24, -5.55, -7.44, -8.78, -7.92, -5.73, -5.27, -3.82, -2.6, 0.0, 0.0, 0.0, 0.0, 0.0, 0.0, 1.7, 3.79, 4.46, 4.84, 5.6, 6.0, 6.14, 5.81, 4.92, 5.81, 5.81, 6.26, 6.26, 6.51, 5.6, 4.84, 4.84, 4.84, 3.22, 2.76, 2.8, 3.0, -2.2, -5.26, -4.98, -3.35, -1.4, 0.0, 2.2, 1.27, 0.0, 0.0, 0.0, 0.0, -0.0, -3.07, -2.99, -1.7, -0.0, -0.0, 5.6, 12.79, 14.03, 12.52, 9.83, 8.49, 7.98, 7.52, 7.1, 7.15, 8.94, 8.4, 1.73, -0.0, -0.0, -0.0, -0.0, 0.0, -4.92, -5.81, -5.81, -9.86, -9.86, -9.59, -9.59, -9.94, -9.66, -10.01, -9.72, -9.72, -10.06, -9.77, -9.77, -10.09, -9.8, -9.21, -9.5, -9.5, -9.44, -9.73, -9.55, -9.55, -8.93, -7.71, -6.94, -6.6, -7.36, -7.13, -7.13, -6.2, -5.45, -4.93, -2.19, 0.0, 0.0, 0.0, 0.0, 0.0, 0.0, 1.63, 3.47, 4.74, 4.74, 5.95, 6.36, 6.26, 5.64, 5.64, 5.36, 4.92, 4.92, 4.43, 6.51, 5.6, 5.6, 4.43, 3.22, 3.22, 3.22, 3.47, 2.2, -4.02, -4.02, -3.13, 0.0, 4.47, 3.16, 2.48, 0.96, 0.0, -0.89, 0.0, 2.4, -3.39, -6.42, -5.9, -1.73, -0.0, 1.27, 6.32, 9.66, 12.72, 12.35, 11.18, 10.28, 7.97, 7.52, 7.97, 7.97, 4.92, 3.6, -0.0, -1.95, -2.6, -3.48, -4.02, -5.36, -5.81, -5.81, -9.86, -9.86, -9.59, -9.94, -9.94, -9.94, -9.66, -9.72, -9.72, -10.06, -9.77, -9.77, -9.77, -9.8, -9.21, -9.21, -9.5, -9.44, -10.02, -9.61, -9.61, -9.16, -9.02, -7.93, -7.36, -6.18, -5.73, -5.8, -6.0, -5.8, -5.08, -4.75, -3.53, -2.02, 0.0, 0.0, 0.0, 0.0, 0.0, 1.84, 3.4, 3.4, 4.22, 5.37, 7.15, 6.71, 6.0, 5.94, 6.07, 5.7, 5.36, 4.92, 6.07, 6.58, 5.72, 4.74, 3.22, 2.98, 3.22, 3.72, 1.7, 0.0, 0.0, 2.68, 3.58, 3.35, 2.95, 1.99, 0.0, -1.03, -0.95, 0.0, -5.69, -7.26, -9.17, -6.44, -2.37, -0.0, 1.99, 5.59, 10.12, 12.79, 13.23, 10.73, 6.26, 6.71, 7.1, 6.45, 5.73, 4.38, 5.09, -3.97, -7.07, -6.0, -5.81, -4.47, -4.92, -4.92, -9.86, -9.86, -9.86, -9.94, -9.94, -9.94, -9.66, -9.66, -9.72, -9.72, -10.06, -9.77, -9.77, -9.8, -9.5, -9.21, -9.5, -9.44, -9.73, -9.61, -9.61, -9.5, -9.02, -8.5, -8.29, -7.15, -5.99, -5.16, -5.36, -5.6, -4.48, -4.32, -3.53, -3.53, -2.6, -1.45, -1.39, 0.0, 0.0, 0.0, 0.0, 1.67, 1.4, 1.95, 0.0, 7.6, 5.37, 6.79, 6.51, 6.14, 5.7, 4.92, 4.47, 4.43, 5.6, 5.6, 5.21, 4.46, 3.79, 2.99, 3.2, 1.05, 2.2, 4.02, 5.81, 4.4, 3.22, 1.03, 0.0, 0.0, -0.95, 0.0, 0.0, -8.94, -6.64, -6.71, -4.98, -1.76, 0.96, 3.0, 6.7, 12.27, 14.11, 10.58, 7.08, 6.71, 7.1, 6.94, 7.08, 6.64, 6.07, 5.73, -5.69, -7.07, -6.0, -4.92, -4.92, -4.92, -9.86, -9.86, -9.86, -9.59, -9.94, -9.94, -9.66, -9.66, -10.01, -9.46, -9.46, -9.77, -9.77, -9.8, -9.5, -9.5, -9.5, -9.44, -9.73, -9.33, -9.33, -9.23, -9.23, -9.39, -8.86, -8.06, -6.94, -6.52, -6.0, -5.25, -4.64, -3.97, -4.15, -3.08, -3.08, -2.49, -2.49, -1.39, 0.0, 0.0, 0.0, 1.47, 1.4, 0.0, -2.54, -8.05, -0.0, 5.37, 6.94, 6.51, 5.7, 5.36, 4.92, 4.92, 4.87, 5.51, 5.6, 5.6, 4.54, 2.99, 0.89, 0.95, 1.99, 5.51, 5.51, 5.6, 1.98, 0.0, 0.0, 0.0, 0.0, 0.0, 0.0, 0.0, 2.4, 6.8, -0.0, -3.11, -0.0, 1.98, 3.6, 9.48, 14.42, 11.46, 8.82, 7.6, 5.81, 7.15, 7.15, 7.15, 7.1, 6.88, -0.0, -4.46, -6.7, -6.36, -5.81, -5.81, -9.86, -9.86, -9.86, -9.86, -9.59, -9.94, -9.66, -9.66, -9.42, -9.46, -9.46, -9.48, -9.48, -9.19, -9.5, -9.5, -9.8, -9.76, -9.73, -9.33, -9.33, -9.23, -9.58, -9.12, -8.61, -8.36, -7.58, -7.13, -6.31, -5.8, -5.25, -4.64, -3.97, -3.82, -2.82, -2.95, -3.25, -2.39, -1.39, 0.0, 0.0, 0.0, 0.0, 1.49, 0.0, -6.8, -6.01, 3.6, 7.06, 6.51, 5.81, 5.36, 4.92, 4.92, 4.92, 4.41, 6.07, 6.0, 4.54, 3.91, 1.98, 0.89, 2.99, 6.0, 6.0, 3.91, 2.64, 0.0, -1.96, -1.73, -0.89, -0.89, -1.0, 0.0, 8.58, 11.18, 9.97, -0.0, -1.84, -0.0, 0.96, 6.7, 11.8, 13.59, 9.21, 5.36, 5.36, 6.2, 6.2, 6.26, 6.2, 5.94, 6.36, -3.4, -6.32, -7.63, -7.15, -7.15, -9.86, -9.86, -9.86, -9.86, -9.59, -9.59, -9.37, -9.42, -9.42, -9.13, -9.46, -9.17, -9.48, -9.19, -9.5, -9.5, -9.46, -9.76, -9.44, -9.06, -9.66, -9.23, -9.58, -9.12, -8.36, -8.46, -7.93, -7.69, -6.9, -6.1, -5.8, -5.25, -4.64, -4.47, -3.53, -3.67, -2.95, -3.25, -2.49, -1.39, 0.0, 0.0, 0.0, 1.32, 2.26, 0.0, 0.0, 5.95, 5.26, 4.92, 4.77, 4.77, 4.92, 4.92, 4.92, 4.92, 4.38, 4.0, 4.98, 4.11, 2.99, 1.84, 4.89, 5.58, 4.43, 3.91, 2.8, 0.0, -2.8, -4.42, -3.77, -1.84, -1.2, 0.0, 12.52, 12.87, 11.91, 8.24, -0.0, -1.05, -0.0, 1.62, 7.78, 11.44, 12.3, 6.61, 5.36, 5.26, 4.82, 6.71, 7.6, 7.47, 7.28, 7.6, -6.01, -8.06, -8.05, -8.05, -9.5, -9.5, -9.86, -9.86, -9.37, -9.37, -9.37, -9.08, -9.42, -9.13, -9.13, -9.46, -9.48, -9.48, -9.19, -9.17, -9.46, -9.46, -9.38, -9.38, -9.38, -9.3, -8.85, -8.85, -8.46, -8.46, -7.69, -7.44, -6.9, -6.9, -6.31, -6.0, -5.25, -5.06, -4.47, -3.53, -3.67, -3.82, -3.25, -2.49, -1.39, -1.39, 0.0, 0.0, 0.0, 0.0, 2.06, 6.23, 3.95, 3.2, 2.98, 2.98, 3.35, 4.77, 4.77, 4.82, 4.82, 5.26, 4.57, 4.29, 2.99, 3.47, 4.74, 3.91, 2.99, 2.16, 2.16, 1.63, 0.0, -5.06, -4.43, -1.98, 0.0, 0.0, 6.0, 9.49, 13.7, 10.73, 5.21, -0.0, -0.88, -0.0, -0.0, 6.0, 10.73, 11.62, 9.21, 5.64, 4.92, 3.82, 4.92, 4.4, 5.37, 6.32, -6.32, -8.48, -8.05, -8.05, -9.3, -9.3, -9.3, -9.66, -9.37, -9.37, -9.37, -9.08, -9.08, -9.13, -9.13, -9.46, -9.17, -9.48, -9.17, -9.48, -9.78, -9.46, -9.09, -9.09, -9.42, -9.3, -9.3, -9.22, -8.94, -8.2, -7.93, -7.54, -6.94, -6.77, -7.25, -7.25, -6.43, -5.72, -4.87, -4.3, -4.62, -3.98, -4.18, -3.25, -2.39, -1.39, -1.33, -1.47, 0.0, 0.0, 2.58, 4.46, 3.91, 3.48, 3.16, 2.53, 2.53, 2.53, 3.6, 4.34, 4.77, 5.2, 4.8, 4.65, 2.76, 3.47, 3.0, 2.29, 1.98, 0.96, 0.0, 0.0, 0.0, 0.0, 0.0, 0.96, 1.58, 0.0, 0.0, 5.64, 8.58, 10.4, 7.15, 1.93, -1.49, -1.83, -1.19, -0.0, 4.1, 11.99, 8.85, 4.8, 4.43, 5.2, 3.82, 3.58, 3.58, 4.09, 0.0, -8.48, -7.63, -7.63, -9.3, -9.3, -9.3, -9.3, -9.66, -9.37, -9.37, -9.08, -9.08, -9.08, -9.13, -9.13, -9.17, -9.17, -9.17, -9.48, -9.48, -9.48, -9.13, -9.42, -9.42, -9.02, -9.02, -8.94, -8.94, -8.2, -7.93, -8.29, -7.54, -7.62, -7.64, -7.64, -7.24, -6.33, -5.51, -4.68, -5.0, -4.44, -3.98, -4.18, -3.25, -2.39, -2.39, -1.33, -1.33, 0.0, 1.39, 2.46, 2.99, 3.2, 2.8, 2.4, 2.48, 2.84, 2.53, 2.86, 3.2, 4.0, 4.4, 3.93, 3.35, 2.8, 2.66, 1.84, 0.96, 0.0, 0.0, 0.0, 0.0, 1.58, 3.55, 3.77, 1.84, 0.0, 0.0, -0.0, 1.84, 2.2, 1.66, 1.84, -0.0, -4.4, -4.96, -2.4, -0.0, -0.0, 0.0, 0.0, 2.83, 7.15, 4.46, 3.58, 3.39, 3.35, 0.0, -7.6, -7.63, -7.63, -9.58, -9.58, -9.3, -9.3, -9.3, -9.37, -9.12, -9.12, -8.82, -8.82, -8.85, -8.85, -8.56, -8.87, -9.17, -9.17, -9.17, -9.48, -9.13, -9.13, -9.42, -9.02, -9.02, -9.08, -8.66, -8.66, -7.93, -8.2, -8.46, -7.25, -6.94, -7.26, -7.26, -6.45, -6.45, -5.3, -5.0, -5.14, -4.44, -4.6, -4.18, -3.11, -2.39, -2.39, -1.33, -1.39, 0.0, 0.0, 0.0, 1.67, 1.49, 1.63, 2.8, 2.6, 2.95, 3.16, 2.53, 2.5, 3.2, 2.86, 2.8, 3.0, 2.8, 1.52, 1.05, 1.05, 0.0, 0.0, 0.0, 1.49, 2.82, 4.37, 1.32, 0.0, 0.0, -0.0, -1.93, -0.0, -0.0, -0.0, -0.0, -5.0, -5.2, -3.68, -0.0, -8.85, -9.48, -4.98, 3.53, 8.94, 4.46, 3.6, 3.13, 2.8, 0.0, -5.69, -6.7, -6.7, -9.58, -9.58, -9.3, -9.3, -9.3, -8.78, -8.78, -9.12, -8.82, -8.82, -8.85, -8.85, -8.56, -8.56, -8.56, -8.87, -9.17, -9.17, -9.17, -9.13, -9.13, -9.46, -9.08, -9.08, -9.08, -8.38, -8.38, -8.2, -8.2, -7.44, -6.43, -6.08, -7.54, -6.84, -6.84, -6.2, -5.63, -5.41, -5.14, -4.6, -4.6, -3.99, -3.11, -2.13, -2.13, -1.22, -1.22, 0.0, 0.0, 0.0, 1.67, 1.58, 1.49, 3.2, 2.8, 3.49, 3.48, 2.84, 2.53, 1.88, 2.23, 4.02, 3.0, 1.52, 1.41, 1.41, 1.05, 0.96, 0.0, 0.95, 1.72, 1.49, 1.32, 0.0, 0.0, 0.0, -11.2, -4.81, -2.54, -0.0, -0.0, -5.4, -5.4, -0.0, -0.0, -12.39, -12.27, -4.1, 7.59, 6.71, 3.72, 3.16, 2.8, 2.68, 0.0, -5.37, -6.01, -6.01, -9.58, -9.58, -9.3, -9.3, -9.08, -8.78, -8.78, -8.78, -8.82, -8.82, -8.85, -8.85, -8.85, -8.85, -8.56, -8.87, -8.87, -9.17, -9.17, -8.83, -9.46, -9.46, -9.46, -9.46, -8.78, -8.78, -8.38, -7.93, -7.93, -7.19, -7.01, -6.21, -6.7, -6.24, -6.84, -6.0, -6.0, -5.76, -5.76, -4.92, -4.6, -4.4, -2.7, -3.11, -3.11, -3.25, -2.49, -1.39, -1.33, 0.0, 0.0, 0.0, 1.58, 1.49, 3.2, 3.0, 3.49, 3.22, 2.68, 1.88, 1.84, 2.0, 1.4, 0.96, 1.84, 1.52, 1.05, 0.96, 0.0, 0.0, 0.0, 0.89, 1.4, 1.09, 0.0, 0.0, -4.32, -12.96, -6.6, -3.07, -4.38, -5.2, -4.8, -0.0, -0.0, -11.18, 0.0, 4.2, 4.8, 5.36, 4.46, 3.48, 1.8, 3.13, 0.0, -4.11, -6.01, -6.01, -9.58, -9.58, -9.58, -9.3, -9.08, -8.78, -8.78, -8.78, -8.82, -8.82, -8.85, -8.85, -8.85, -8.85, -8.85, -8.85, -8.87, -8.87, -9.17, -9.48, -9.48, -9.15, -9.15, -9.15, -9.15, -8.78, -8.38, -8.38, -7.93, -7.67, -7.19, -7.28, -6.53, -6.33, -5.86, -6.24, -6.0, -6.0, -5.76, -5.76, -5.29, -4.4, -3.49, -2.17, -3.14, -4.4, -4.6, -4.05, -3.11, -1.54, 0.0, 0.0, 0.0, 1.49, 1.49, 3.2, 2.8, 3.49, 2.41, 1.84, 1.6, 1.76, 1.4, 1.03, 1.84, 1.52, 0.0, 0.0, 0.0, 0.0, 0.0, 0.89, 1.58, 0.0, 0.0, -3.04, -3.07, -6.94, -4.95, -3.16, -6.0, -5.46, -2.54, -0.0, -0.0, 5.69, 7.6, 3.48, 4.4, 5.36, 5.2, 3.79, 2.48, -0.0, -0.0, -3.16, -5.06, -5.69, -9.21, -9.21, -9.21, -8.94, -9.08, -9.08, -8.78, -8.78, -8.82, -8.82, -8.85, -8.85, -8.85, -8.85, -8.85, -8.85, -8.85, -9.17, -9.17, -9.17, -9.17, -9.17, -9.48, -9.15, -9.15, -9.15, -8.78, -8.05, -8.1, -7.67, -7.4, -7.28, -7.02, -6.62, -6.09, -5.86, -5.63, -6.0, -6.0, -5.76, -5.29, -5.06, -4.0, -2.06, -1.84, -4.6, -6.5, -5.95, -5.29, -1.93, 0.0, 0.0, 0.0, 1.49, 1.49, 2.66, 3.0, 3.49, 2.3, 2.07, 1.8, 1.76, 2.66, 0.96, 0.96, 0.0, 0.0, 0.0, 0.0, 0.0, 0.0, 0.0, 0.0, 0.0, -1.66, -5.8, -4.6, -5.6, -0.0, -2.72, -5.8, -2.97, -0.0, -0.0, -0.0, -0.0, 0.0, 0.0, 5.81, 5.09, 4.8, 3.79, 2.98, -0.0, -0.0, -4.0, -4.11, -5.06, -9.21, -9.21, -9.21, -8.94, -8.94, -8.73, -8.78, -8.78, -8.82, -8.82, -8.53, -8.85, -8.85, -8.85, -8.85, -8.85, -8.85, -8.85, -9.17, -9.17, -9.17, -9.17, -9.17, -9.17, -8.85, -8.85, -8.49, -8.49, -8.1, -7.82, -7.4, -7.46, -7.02, -6.76, -6.36, -5.86, -5.3, -5.63, -6.0, -5.76, -6.15, -5.29, -4.83, -3.15, -2.17, -4.23, -8.53, -10.0, -7.27, -2.28, 0.0, 0.0, 0.0, 0.0, 1.49, 1.4, 2.49, 2.76, 2.53, 2.3, 2.0, 1.76, 1.19, 1.32, 0.0, 0.0, 0.0, 0.0, 0.0, 0.0, 0.0, -0.96, -1.49, 0.0, 0.0, -7.24, -9.2, -8.0, -0.0, -2.2, -2.37, -1.93, -0.0, -0.0, -0.0, -5.81, -6.71, 0.0, 6.26, 5.21, 3.79, 3.22, 2.6, -0.0, -4.43, -4.8, -3.79, -4.11, -9.21, -9.21, -9.21, -8.94, -8.94, -8.94, -8.78, -8.78, -8.82, -8.82, -8.82, -8.85, -8.85, -8.85, -8.85, -8.85, -8.85, -8.85, -8.85, -8.85, -8.85, -8.85, -9.48, -9.48, -9.17, -9.17, -8.85, -8.49, -8.2, -7.82, -7.54, -7.14, -7.18, -6.76, -6.5, -6.36, -5.86, -5.86, -5.63, -5.76, -6.15, -5.29, -5.46, -4.2, -3.36, -4.58, -6.2, -9.39, -6.01, -3.8, 0.0, 0.0, 0.0, 0.0, 1.49, 1.4, 1.32, 2.16, 2.76, 2.2, 2.2, 2.0, 2.49, 1.63, 1.52, 1.41, 0.0, 0.0, 0.96, 0.0, 0.0, -1.98, -2.99, -1.58, 0.0, -2.83, -11.62, -5.52, -1.54, -1.75, -1.52, -1.08, -1.19, -2.26, -5.37, -7.6, -7.15, 0.0, 5.37, 5.95, 5.36, 3.76, 2.8, -0.0, -5.69, -6.4, -6.0, -6.0, -9.21, -9.21, -9.21, -9.21, -8.94, -9.3, -9.02, -8.78, -8.78, -8.82, -8.82, -8.53, -8.53, -8.85, -8.85, -8.85, -8.85, -8.85, -8.85, -8.85, -8.85, -9.15, -9.15, -9.15, -9.17, -9.17, -8.85, -8.54, -8.2, -8.2, -7.54, -7.14, -6.87, -6.9, -6.5, -6.5, -6.36, -5.62, -5.95, -5.41, -5.76, -5.9, -5.29, -5.29, -5.35, -4.12, -1.14, 0.0, 0.0, 0.0, 0.0, 0.0, 0.0, 0.0, 0.0, 1.49, 2.49, 2.32, 2.16, 1.7, 1.7, 1.35, 1.76, 1.4, 1.52, 1.41, 1.84, 0.0, 0.0, 0.0, -1.03, -2.64, -4.37, -2.67, -1.4, 0.0, -8.0, -5.52, -4.14, -2.2, -1.8, -1.8, -3.8, -5.7, -9.2, -9.39, 0.0, 0.0, 5.06, 5.95, 5.72, 5.72, 3.2, -0.0, -8.49, -7.6, -7.6, -7.6, -9.21, -9.21, -9.21, -9.21, -8.94, -9.3, -9.02, -9.02, -8.78, -8.82, -8.82, -8.82, -8.53, -8.85, -8.85, -8.85, -8.85, -8.85, -8.85, -8.85, -8.85, -8.82, -9.15, -9.15, -9.15, -8.85, -8.85, -8.85, -8.52, -7.9, -7.54, -7.26, -6.87, -6.9, -6.5, -6.5, -6.11, -6.11, -5.62, -5.95, -5.52, -5.9, -5.9, -5.29, -5.14, -3.53, -1.84, 0.0, 0.0, 0.0, 0.0, 0.0, 0.0, 0.0, 0.0, 1.49, 1.4, 2.49, 2.32, 1.84, 1.7, 1.47, 1.35, 2.66, 3.0, 2.8, 1.52, 0.0, 0.0, -0.88, -1.72, -3.55, -4.26, -4.12, -2.69, -1.11, 0.0, -6.95, -5.63, -5.1, -6.17, -7.78, -8.85, -9.8, -11.2, -10.73, 0.0, 6.71, 5.6, 5.58, 5.36, 6.4, 3.97, -4.0, -8.94, -8.94, -8.94, -8.94, -9.21, -9.21, -9.21, -9.21, -8.94, -9.3, -9.3, -9.02, -8.78, -8.82, -8.82, -8.82, -8.82, -8.82, -9.15, -9.15, -9.15, -9.15, -8.85, -8.85, -9.15, -8.82, -8.82, -8.82, -9.15, -8.85, -8.85, -8.85, -8.21, -8.21, -8.21, -7.26, -7.26, -6.61, -6.9, -6.5, -6.54, -6.11, -5.85, -5.7, -6.05, -5.52, -5.9, -5.9, -5.29, -4.25, -3.36, -1.68, -0.89, -0.94, 0.0, 0.0, 0.0, 0.0, 0.0, 1.49, 1.4, 1.32, 1.23, 1.98, 1.84, 1.47, 1.47, 1.73, 2.82, 2.66, 1.32, 0.0, 0.0, -1.84, -2.82, -3.55, -4.5, -4.34, -2.57, -0.85, 0.89, 1.2, 0.0, -12.96, -9.17, -13.28, -13.28, -11.7, -9.8, -7.9, 0.0, 8.49, 8.05, 4.74, 6.01, 2.8, -0.0, -6.01, -8.49, -8.49, -8.49, -8.49, -9.21, -9.21, -9.21, -9.21, -9.58, -9.3, -9.3, -9.02, -8.78, -8.78, -8.82, -8.82, -8.82, -8.82, -8.82, -9.15, -9.15, -9.15, -8.82, -8.82, -8.82, -8.82, -8.82, -8.82, -8.53, -8.53, -8.53, -8.53, -8.21, -8.21, -7.91, -7.56, -7.26, -6.98, -6.9, -6.63, -6.24, -6.54, -5.85, -6.17, -5.7, -6.05, -5.9, -5.9, -5.29, -5.29, -4.4, -3.49, -2.57, -1.75, -1.05, -1.14, 0.0, 0.0, 0.0, 0.0, 1.4, 1.4, 1.1, 1.03, 1.84, 1.6, 1.47, 1.19, 1.7, 1.25, 0.0, 0.0, -1.03, -1.72, -3.55, -3.77, -3.6, -2.69, -1.75, 0.0, 0.81, 1.68, 3.11, 2.95, 0.0, -16.39, -13.59, -10.19, -7.69, -7.9, -10.28, 0.0, 6.95, 6.64, -0.0, -0.0, -0.0, -3.2, -7.6, -7.6, -7.6, -7.6, -9.48, -9.48, -9.21, -9.21, -9.58, -9.3, -9.3, -9.08, -8.78, -8.78, -8.5, -8.82, -8.82, -8.82, -8.82, -8.82, -9.15, -8.53, -8.53, -8.53, -8.82, -8.82, -8.82, -8.82, -8.53, -8.53, -8.53, -8.53, -8.21, -7.91, -7.91, -7.91, -7.56, -7.27, -7.27, -6.9, -6.63, -6.54, -6.11, -6.17, -5.7, -6.05, -6.05, -5.64, -5.06, -5.06, -4.4, -3.49, -3.32, -2.83, -1.84, -1.95, -1.14, 0.0, 0.0, 0.0, 0.0, 1.18, 1.1, 1.1, 1.98, 1.6, 1.3, 1.19, 1.7, 1.25, 0.0, 0.0, -1.32, -0.95, -2.82, -2.51, -1.84, -1.84, -0.89, 0.0, 0.0, 0.81, 1.67, 1.84, 2.6, 0.0, -13.28, -8.0, -7.2, -9.17, -7.59, -0.0, -0.0, 3.79, -0.0, -0.0, -0.0, -2.8, -6.0, -6.71, -6.71, -6.71, -9.48, -9.48, -9.21, -9.21, -9.58, -9.58, -9.3, -9.08, -8.78, -8.78, -8.78, -8.5, -8.82, -8.82, -8.82, -8.82, -8.53, -8.53, -8.53, -8.53, -8.53, -8.82, -8.82, -8.53, -8.53, -8.53, -8.53, -8.21, -7.91, -7.91, -7.91, -7.91, -7.56, -7.27, -7.27, -7.27, -6.63, -6.24, -6.54, -5.85, -6.17, -5.7, -5.78, -5.64, -5.64, -5.06, -4.56, -4.56, -3.63, -2.83, -2.69, -2.06, -2.21, -1.07, 0.0, 0.0, 0.0, 0.0, 1.1, 1.98, 1.72, 1.6, 1.3, 1.19, 1.19, 1.49, 0.0, 0.0, 0.0, -0.95, 0.0, -0.89, -0.94, -0.89, -0.94, -0.85, 0.0, 0.0, 0.0, 0.94, 0.89, 0.0, -15.69, -8.2, -7.8, -4.38, -4.4, -0.0, -0.0, -0.0, 5.81, 3.79, -0.0, -0.0, -4.74, -7.15, -7.15, -7.15, -9.48, -9.48, -9.48, -9.21, -9.21, -9.58, -9.08, -9.08, -8.78, -8.78, -8.78, -8.5, -8.82, -8.82, -8.82, -8.82, -8.53, -8.53, -8.53, -8.53, -8.53, -8.53, -8.53, -8.84, -8.84, -8.84, -8.84, -8.22, -7.91, -7.91, -7.91, -7.91, -7.56, -7.27, -7.27, -7.27, -6.63, -6.63, -6.54, -6.27, -6.17, -6.17, -6.05, -5.78, -5.64, -5.06, -5.21, -4.56, -3.81, -3.63, -2.98, -2.98, -1.95, -1.14, 0.0, 0.0, 0.0, 0.0, 0.89, 0.89, 1.72, 1.41, 1.3, 1.07, 0.61, 0.89, 0.89, 0.89, 0.0, -0.95, -1.73, -1.84, -0.94, -0.94, -0.84, -0.84, -0.89, 0.0, 0.0, 0.0, 0.0, 0.0, -8.22, -8.85, -5.81, -3.36, -0.0, -0.0, -0.0, -0.0, -0.0, 4.11, 3.48, -0.0, 0.0, -6.71, -6.71, -6.71, -9.48, -9.48, -9.48, -9.21, -9.21, -9.01, -9.08, -9.08, -9.08, -8.78, -8.78, -8.78, -8.5, -8.82, -8.82, -8.53, -8.53, -8.53, -8.53, -8.53, -8.53, -8.53, -8.84, -8.84, -8.84, -8.84, -8.84, -8.22, -8.22, -7.91, -7.91, -7.91, -7.27, -7.27, -7.27, -7.28, -7.28, -6.93, -6.93, -6.27, -5.85, -6.17, -6.05, -5.78, -5.64, -5.38, -5.21, -4.56, -4.56, -3.63, -3.14, -2.98, -2.33, -1.07, -1.07, 0.0, 0.0, 0.0, 0.95, 0.89, 0.82, 1.41, 0.67, 0.59, 0.0, 0.0, 0.96, 1.03, 0.0, -0.89, -2.64, -3.55, -3.77, -1.84, -0.89, -0.89, 0.0, 0.0, 0.0, 0.0, 0.0, 0.0, -2.49, -9.2, -2.81, -0.0, -0.0, 0.0, 0.0, -0.0, -0.0, -0.0, -0.0, 0.0, 0.0, -5.81, -5.81, -5.81, -9.48, -9.48, -9.48, -9.01, -9.01, -9.01, -9.01, -9.08, -9.08, -8.78, -8.78, -8.78, -8.78, -8.78, -9.12, -8.84, -8.84, -8.53, -8.53, -8.53, -8.22, -8.22, -8.84, -8.84, -8.84, -8.84, -8.52, -8.22, -8.22, -7.91, -7.91, -7.6, -7.27, -7.27, -7.58, -7.28, -7.28, -6.93, -6.93, -6.64, -6.27, -6.17, -6.17, -5.78, -5.78, -5.38, -4.83, -5.21, -4.56, -3.63, -4.0, -2.98, -2.98, -1.14, -1.07, 0.0, 0.0, 0.0, 0.83, 0.83, 0.72, 0.72, 0.59, 0.59, 0.0, 0.0, 0.0, 0.0, 0.0, 0.0, -1.84, -3.72, -4.58, -4.58, -1.73, -0.89, 0.0, 0.0, 0.0, 0.0, -0.89, -0.89, -1.03, -8.05, -0.0, -0.0, -0.0, 2.53, 4.02, 4.47, -0.0, -0.0, -0.0, -0.0, -0.0, -0.0, -0.0, -0.0, -9.3, -9.3, -9.3, -9.3, -9.01, -9.01, -9.01, -8.73, -9.08, -8.78, -8.78, -8.78, -8.78, -8.78, -8.78, -8.84, -8.84, -8.52, -8.22, -8.22, -8.22, -8.52, -8.84, -8.84, -8.84, -8.84, -8.52, -8.52, -8.22, -7.91, -7.6, -7.6, -7.27, -7.58, -7.58, -7.28, -7.28, -6.93, -6.64, -6.64, -6.58, -6.58, -5.9, -5.78, -5.78, -5.38, -5.38, -5.21, -4.56, -4.56, -3.63, -3.14, -2.98, -2.21, -1.14, 0.0, 0.0, 0.0, 0.0, 0.83, 0.78, 0.0, 0.0, 0.0, 0.0, 0.0, 0.0, 0.0, 0.0, 1.03, 0.0, -1.84, -3.91, -4.43, -2.82, -1.96, 0.0, 0.0, -0.89, -0.89, -1.73, -0.89, -1.03, -0.0, -0.0, -0.0, -0.0, 3.48, 3.2, 4.02, 3.48, -0.0, -0.0, -0.0, -0.0, -0.0, -0.0, -0.0, -9.3, -9.3, -9.3, -9.3, -9.01, -9.01, -9.01, -8.73, -8.73, -9.08, -8.78, -8.78, -8.78, -8.78, -8.78, -8.52, -8.52, -8.52, -8.52, -8.52, -8.52, -8.52, -8.84, -8.84, -8.84, -8.52, -8.52, -8.52, -8.22, -7.91, -7.6, -7.6, -7.27, -7.58, -7.58, -7.28, -6.93, -6.93, -6.95, -6.95, -6.58, -6.58, -5.9, -6.23, -5.78, -5.04, -5.38, -4.6, -5.21, -4.56, -3.63, -3.63, -1.95, -1.95, -0.94, 0.0, 0.0, 0.0, 0.0, 0.0, 0.0, 0.0, 0.0, 0.0, 0.0, 0.0, 0.0, 0.0, 0.0, 0.0, 0.0, 0.0, 0.0, -1.05, -2.4, -2.8, -1.84, -1.96, -1.73, -2.82, -2.64, -1.84, -8.49, -0.0, -0.0, -0.0, -0.0, -0.0, 2.53, 2.53, 3.16, 5.06, 5.37, 2.4, 2.0, 3.16, 3.16, 3.16, -8.93, -8.93, -9.3, -9.3, -9.01, -9.01, -9.01, -8.73, -8.73, -9.08, -8.78, -8.78, -8.78, -8.78, -8.78, -8.52, -8.52, -8.52, -8.52, -8.52, -8.52, -8.52, -8.52, -8.52, -8.52, -8.52, -8.52, -8.52, -8.22, -7.9, -7.6, -7.6, -7.58, -7.58, -7.28, -7.28, -7.25, -7.25, -6.95, -6.95, -6.58, -6.58, -6.23, -6.23, -5.52, -5.52, -5.04, -4.6, -4.6, -4.2, -3.63, -3.63, -2.98, -1.95, -1.0, -0.94, 0.0, 0.0, 0.0, 0.0, 0.0, 0.0, 0.0, 0.0, 0.0, 0.0, 0.0, 0.0, 0.0, 0.0, 0.0, 0.89, 0.89, 0.95, 0.0, -1.84, -3.0, -2.82, -3.55, -3.55, -3.72, -2.8, -5.81, -2.19, -0.0, -0.0, -0.0, -0.0, -0.0, 1.8, 4.11, 5.69, 5.69, 4.43, 2.2, 3.48, 3.48, 3.48, -8.93, -8.93, -8.93, -8.93, -9.01, -9.01, -9.01, -9.01, -8.73, -8.73, -8.78, -8.78, -8.78, -8.78, -8.78, -8.52, -8.52, -8.52, -8.52, -8.52, -8.52, -8.52, -8.52, -8.52, -8.52, -8.52, -8.52, -8.52, -8.22, -7.9, -7.6, -7.6, -7.58, -7.58, -7.28, -7.28, -7.25, -7.25, -6.95, -6.58, -6.58, -6.92, -6.23, -6.23, -5.78, -5.52, -5.04, -4.5, -4.6, -4.2, -4.2, -3.32, -2.69, -1.84, -1.75, -0.89, -0.89, -0.84, -0.84, 0.0, 0.0, 0.0, 0.0, 0.0, 0.0, 0.0, 0.0, -0.67, 0.0, 0.0, 0.0, 0.0, 0.0, 0.89, 0.0, -0.89, -3.55, -3.77, -3.4, -3.55, -2.8, 0.0, -1.7, -2.69, -0.0, -0.0, -0.0, -0.0, -0.0, -0.0, 2.4, 5.06, 5.06, 4.74, -0.0, -0.0, -0.0, -0.0, -8.93, -8.93, -8.93, -8.93, -8.93, -9.01, -9.01, -9.01, -8.73, -8.73, -8.73, -8.45, -8.78, -8.78, -8.52, -8.52, -8.52, -8.52, -8.52, -8.52, -8.52, -8.52, -8.52, -8.52, -8.52, -8.52, -8.52, -8.52, -8.22, -7.9, -7.9, -7.58, -7.58, -7.58, -7.28, -6.93, -7.25, -7.25, -7.25, -6.92, -6.92, -6.51, -6.23, -5.78, -5.78, -5.78, -5.04, -4.5, -4.28, -4.2, -4.0, -2.57, -2.44, -1.67, -1.67, -1.58, -1.75, -1.75, -1.65, -0.94, -0.89, -0.89, -0.89, -0.79, -0.79, -0.71, -0.71, -0.71, -0.74, -0.89, 0.0, 0.0, 0.0, 0.0, 0.0, -1.72, -3.55, -3.6, -3.6, -2.67, 0.0, 0.95, 0.96, 0.0, -0.0, -0.0, -0.0, -0.0, -0.0, -0.0, -0.0, -0.0, -0.0, -0.0, -0.0, -0.0, -0.0, -0.0, -8.93, -8.93, -8.93, -8.93, -8.93, -9.01, -9.01, -9.01, -8.73, -8.73, -8.73, -8.73, -8.73, -8.49, -8.49, -8.82, -8.52, -8.52, -8.52, -8.52, -8.52, -8.52, -8.52, -8.52, -8.52, -8.52, -8.52, -8.22, -8.22, -7.9, -7.9, -7.58, -7.58, -7.28, -7.28, -7.25, -7.25, -7.25, -6.87, -6.92, -6.92, -6.51, -6.51, -5.78, -5.78, -5.28, -5.04, -4.5, -4.6, -4.0, -4.0, -2.57, -2.57, -2.44, -2.44, -2.31, -2.31, -2.54, -1.75, -1.84, -1.73, -0.89, -0.89, -0.79, -0.79, -0.79, -0.71, -0.71, -1.55, -0.95, 0.0, 0.0, 0.95, 0.95, 0.0, -0.89, -3.0, -3.55, -3.6, 0.0, 0.89, 1.73, 0.89, 4.74, 1.75, -0.0, -1.67, -1.63, -0.0, -0.0, -0.0, -0.0, 2.84, 2.4, 1.8, -0.0, -0.0, -0.0, -8.82, -8.82, -8.93, -8.93, -8.93, -8.65, -9.01, -9.01, -9.01, -8.73, -8.73, -8.73, -8.49, -8.49, -8.49, -8.49, -8.82, -8.82, -8.52, -8.52, -8.52, -8.52, -8.52, -8.52, -8.52, -8.52, -8.52, -8.22, -8.22, -7.9, -7.58, -7.58, -7.58, -7.58, -6.93, -7.25, -7.25, -7.25, -6.87, -7.22, -6.51, -6.88, -6.88, -6.14, -6.14, -5.64, -5.38, -4.83, -4.83, -4.2, -4.0, -3.32, -3.32, -2.57, -2.44, -2.44, -2.31, -2.54, -2.54, -2.67, -2.67, -1.84, -1.73, -1.73, -1.55, -1.55, -1.55, -1.65, -1.49, -1.4, -0.62, 0.0, 0.95, 0.95, 0.95, 0.0, 0.0, -0.95, -0.89, 0.0, 0.94, 0.94, 0.94, 2.12, 2.28, -0.0, -3.53, -3.49, -1.67, -1.95, -0.0, -0.0, 1.4, 1.4, 1.4, -0.0, -0.0, -0.0, -8.82, -8.82, -8.55, -8.93, -8.93, -8.93, -8.65, -8.65, -9.01, -8.73, -8.73, -8.73, -8.49, -8.49, -8.49, -8.49, -8.82, -8.82, -8.82, -8.82, -8.52, -8.52, -8.52, -8.52, -8.52, -8.52, -8.22, -8.22, -8.22, -7.9, -7.58, -7.58, -7.58, -7.58, -7.22, -7.25, -7.25, -6.87, -7.22, -7.22, -6.79, -6.88, -6.88, -6.14, -6.14, -6.14, -5.64, -5.38, -4.83, -4.83, -4.0, -3.32, -3.32, -3.32, -3.15, -3.15, -3.15, -2.54, -2.54, -2.83, -3.4, -2.67, -2.67, -1.84, -1.84, -1.65, -1.65, -1.65, -1.75, -1.49, -1.32, 0.0, 0.95, 1.49, 0.95, 0.83, 0.0, 0.0, 0.0, -0.89, 0.0, 0.0, 0.0, 0.0, -0.0, -1.58, -3.68, -3.39, -3.11, -3.65, -1.75, -0.0, -0.0, -0.0, -0.0, -0.0, -0.0, -0.0, -8.82, -8.82, -8.82, -8.55, -8.93, -8.93, -8.65, -8.65, -8.65, -8.65, -8.49, -8.49, -8.49, -8.49, -8.49, -8.49, -8.82, -8.82, -8.82, -8.82, -8.82, -8.82, -8.52, -8.52, -8.82, -8.54, -8.54, -8.22, -8.22, -7.9, -7.58, -7.58, -7.58, -7.58, -7.22, -7.55, -7.25, -6.87, -7.22, -7.22, -6.79, -6.88, -6.88, -6.42, -6.14, -6.14, -5.64, -5.38, -4.83, -4.83, -4.34, -4.34, -4.0, -4.0, -3.15, -3.15, -3.15, -3.45, -3.27, -3.6, -3.6, -3.4, -3.4, -2.67, -2.67, -1.84, -1.65, -1.75, -1.75, -1.65, -1.45, -0.53, 0.0, 0.0, 0.0, 0.0, 0.0, 0.0, 0.0, -0.89, -0.89, 0.0, 0.0, 0.0, 0.0, -0.0, -2.95, -3.25, -3.11, -3.49, -3.49, -1.49, -1.41, -1.19, -1.7, -2.8, -2.8, -2.8, -8.82, -8.82, -8.82, -8.55, -8.93, -8.93, -8.65, -8.65, -8.65, -8.65, -8.49, -8.49, -8.49, -8.49, -8.49, -8.49, -8.82, -8.82, -8.82, -8.82, -8.82, -8.82, -8.52, -8.52, -8.82, -8.54, -8.54, -8.22, -8.22, -7.9, -7.58, -7.58, -7.58, -7.58, -7.22, -7.55, -7.25, -6.87, -7.22, -7.22, -6.79, -6.88, -6.88, -6.42, -6.14, -6.14, -5.64, -5.38, -4.83, -4.83, -4.34, -4.34, -4.0, -4.0, -3.15, -3.15, -3.15, -3.45, -3.27, -3.6, -3.6, -3.4, -3.4, -2.67, -2.67, -1.84, -1.65, -1.75, -1.75, -1.65, -1.45, -0.53, 0.0, 0.0, 0.0, 0.0, 0.0, 0.0, 0.0, -0.89, -0.89, -0.89, 0.0, 0.0, 2.54, 4.0, -0.0, -1.39, -1.62, -1.62, -3.11, -3.49, -3.8, -1.84, -2.26, -2.4, -2.4, -2.4]}]